                ,  0.290,  0.386,  0.483,  0.580,  0.676,  0.773,  0.869,  0.966,  1.063,  1.159,  1.256,  1.352,  1.449,  1.545,  1.642,  1.739,  1.835,  1.932,  2.028,  2.125,  2.222,  2.318,  2.415,  2.511,  2.608,  2.705,  2.801,  2.898,  2.994,  3.091,  3.188,  3.284,  3.381,  3.477,  3.574,  3.671,  3.767,  3.864,  3.960,  4.057,  4.153,  4.250,  4.347,  4.443,  4.540,  4.636,  4.733,  4.830,  4.926,  5.023,  5.119,  5.216,  5.313,  5.409,  5.506,  5.602,  5.699,  5.796
2001/03/07 00:00,  999.0,  999.0,  999.0,  999.0,    4.3,  999.0,    5.5,    2.1,    2.6,    2.0,    2.1,    2.9,    3.9,    3.9,    3.7,  999.0,    2.7,    2.1,    1.7,    1.2,    1.3,    2.5,    2.9,    3.7,    3.6,    2.9,    2.3,    1.7,    1.6,    1.4,    2.1,    2.4,    2.0,    2.1,    2.1,    2.4,    3.0,    3.2,    3.2,    2.5,    2.2,    1.1,    0.6,   -0.9,   -1.5,   -2.7,   -3.2,   -4.1,   -5.2,   -5.9,   -6.3,   -6.2,   -6.3,   -5.6,   -4.2,   -4.9,   -4.5,   -3.8
2001/03/07 00:10,  999.0,  999.0,  999.0,   -0.7,    3.5,    3.6,    4.3,    4.9,    6.3,    5.0,    4.1,    3.2,    2.0,    2.4,    1.9,    1.7,    2.1,    1.7,    1.1,    1.6,    2.4,    3.4,    4.3,    6.1,    5.5,    4.6,    4.3,    4.2,    3.5,    3.2,    2.7,    3.1,    2.8,    2.9,    2.3,    1.7,    1.6,    1.8,    2.7,    3.1,    3.2,    2.4,    1.3,    0.2,   -0.8,   -2.1,   -3.3,   -3.9,   -4.4,   -5.5,   -6.4,   -6.5,   -4.7,   -4.8,   -4.8,   -4.4,   -3.9,   -4.1
2001/03/07 00:20,  999.0,    0.9,    1.3,    2.3,    1.2,    6.1,    5.1,    4.0,    4.7,    3.8,    3.3,    4.1,    2.9,    2.0,    2.0,    1.5,    1.0,  999.0,  999.0,  999.0,    0.2,    4.2,    5.0,    5.4,    9.0,    2.4,    3.0,    0.0,    0.3,    3.1,    2.1,  999.0,    0.5,    0.9,    1.2,    1.0,    1.5,    1.0,    1.3,    1.9,    2.4,    3.0,    1.7,    0.5,   -0.1,   -1.2,   -1.8,  999.0,  999.0,   -2.7,  999.0,  999.0,   -4.0,   -4.0,   -4.2,   -4.1,   -4.5,   -4.3
2001/03/07 00:30,  999.0,    2.5,    1.6,    2.5,    3.9,    4.2,    3.4,    4.0,    3.9,    3.8,    3.5,    2.7,    3.5,    3.0,    1.9,    0.7,    0.9,    1.6,    0.7,    0.8,    1.3,    1.6,    1.6,    1.6,    2.1,    4.1,    3.0,  999.0,    2.2,  999.0,  999.0,  999.0,  999.0,   -1.5,  999.0,   -0.9,   -2.1,   -0.8,    0.6,    1.4,    0.4,    0.1,    1.1,    0.7,    1.1,   -0.2,  999.0,  999.0,  999.0,  999.0,  999.0,   -2.0,  999.0,   -5.0,  999.0,   -4.0,   -4.3,   -4.4
2001/03/07 00:40,  999.0,    2.3,    2.7,    1.5,    2.1,    1.7,    0.9,    3.4,    2.5,    6.3,    3.0,    3.5,    2.7,    3.9,    1.6,    0.8,    0.4,    0.5,    1.9,  999.0,    0.8,    1.6,    1.8,  999.0,    2.8,    2.9,  999.0,  999.0,  999.0,  999.0,  999.0,  999.0,  999.0,  999.0,  999.0,  999.0,   -3.6,   -1.0,    1.7,  999.0,    2.8,  999.0,    2.1,  999.0,    0.0,  999.0,  999.0,  999.0,  999.0,  999.0,  999.0,  999.0,  999.0,  999.0,  999.0,  999.0,  999.0,  999.0
2001/03/07 00:50,  999.0,    1.8,    1.3,    1.2,    3.0,    2.1,    1.9,    2.1,    1.4,    2.0,    2.2,    2.4,    2.4,    3.3,    0.7,    1.6,    0.6,    0.7,  999.0,   -0.5,    0.8,    1.9,    2.0,    3.3,  999.0,  999.0,    5.5,  999.0,  999.0,  999.0,  999.0,  999.0,  999.0,  999.0,  999.0,  999.0,  999.0,  999.0,  999.0,  999.0,  999.0,  999.0,  999.0,  999.0,  999.0,  999.0,  999.0,  999.0,  999.0,  999.0,  999.0,  999.0,  999.0,  999.0,  999.0,  999.0,  999.0,  999.0
2001/03/07 01:00,  999.0,    3.0,    1.4,    2.2,    3.1,    2.9,    1.6,    3.0,    4.1,    3.2,    2.2,    3.2,    3.5,    2.8,    2.4,    1.3,    0.2,    0.6,   -1.3,   -1.2,    0.6,    1.4,    1.6,    3.2,  999.0,  999.0,  999.0,  999.0,  999.0,  999.0,  999.0,  999.0,  999.0,  999.0,  999.0,  999.0,  999.0,  999.0,  999.0,  999.0,  999.0,  999.0,  999.0,  999.0,  999.0,  999.0,  999.0,  999.0,  999.0,  999.0,  999.0,  999.0,  999.0,  999.0,  999.0,  999.0,  999.0,  999.0
2001/03/07 01:10,  999.0,    1.9,    1.2,    0.4,    1.6,    2.3,    1.5,    3.7,    2.6,    3.6,    3.6,    2.4,    2.6,    2.6,    1.3,    1.6,    0.0,   -0.4,  999.0,  999.0,    3.8,    0.6,    1.2,    2.6,  999.0,  999.0,  999.0,  999.0,  999.0,    0.7,  999.0,  999.0,  999.0,  999.0,  999.0,  999.0,  999.0,  999.0,  999.0,  999.0,  999.0,  999.0,  999.0,  999.0,  999.0,  999.0,  999.0,  999.0,  999.0,  999.0,  999.0,  999.0,  999.0,  999.0,  999.0,  999.0,  999.0,  999.0
2001/03/07 01:20,  999.0,    3.0,    2.0,    1.3,    2.0,    1.0,    1.1,    3.7,    1.7,    1.2,    0.2,    1.1,    2.0,    2.7,    2.6,    1.8,    1.6,    1.1,    0.4,  999.0,  999.0,  999.0,  999.0,    1.7,  999.0,  999.0,  999.0,  999.0,  999.0,  999.0,  999.0,  999.0,  999.0,  999.0,  999.0,  999.0,  999.0,  999.0,  999.0,  999.0,  999.0,  999.0,  999.0,  999.0,  999.0,    3.4,  999.0,  999.0,  999.0,  999.0,  999.0,  999.0,  999.0,  999.0,  999.0,  999.0,  999.0,  999.0
2001/03/07 01:30,  999.0,    2.2,    0.0,    1.6,    2.6,    3.5,    2.7,    3.8,    3.1,    3.2,    2.0,    2.9,    1.8,    2.5,    2.4,    3.0,    2.1,    1.0,   -0.1,  999.0,   -1.5,    1.8,  999.0,  999.0,  999.0,  999.0,  999.0,  999.0,    1.4,  999.0,  999.0,  999.0,  999.0,  999.0,  999.0,  999.0,  999.0,  999.0,  999.0,  999.0,  999.0,    2.4,  999.0,  999.0,  999.0,  999.0,  999.0,  999.0,  999.0,  999.0,  999.0,  999.0,  999.0,  999.0,  999.0,  999.0,  999.0,  999.0
2001/03/07 01:40,  999.0,    3.0,    1.5,    2.7,    3.3,    3.9,    2.0,    1.5,    1.8,    3.7,    0.1,    2.2,    1.9,    1.9,    2.9,    2.6,    1.7,  999.0,  999.0,  999.0,  999.0,    1.5,  999.0,    3.5,  999.0,  999.0,  999.0,  999.0,  999.0,    0.9,  999.0,  999.0,  999.0,  999.0,  999.0,  999.0,  999.0,  999.0,  999.0,  999.0,  999.0,  999.0,  999.0,  999.0,  999.0,    2.4,   -0.8,  999.0,  999.0,  999.0,  999.0,  999.0,  999.0,  999.0,  999.0,  999.0,  999.0,  999.0
2001/03/07 01:50,  999.0,    3.6,    2.9,    3.9,    2.7,    2.7,    1.9,    2.9,    2.5,    2.5,    2.8,    1.9,    1.1,    2.6,    2.6,    2.5,    1.5,  999.0,  999.0,  999.0,  999.0,  999.0,    1.7,    3.4,  999.0,  999.0,  999.0,  999.0,  999.0,  999.0,  999.0,  999.0,    2.3,  999.0,  999.0,  999.0,    1.5,  999.0,  999.0,  999.0,  999.0,  999.0,  999.0,  999.0,  999.0,  999.0,  999.0,  999.0,  999.0,  999.0,  999.0,  999.0,  999.0,  999.0,  999.0,  999.0,  999.0,  999.0
2001/03/07 02:00,  999.0,    1.1,    3.0,    3.0,    2.2,    4.8,    2.2,    1.1,    1.1,    2.9,    2.5,    2.4,    2.0,    1.7,    2.4,    2.8,    2.5,    1.3,    0.8,  999.0,    2.1,  999.0,  999.0,    4.0,  999.0,  999.0,  999.0,  999.0,  999.0,  999.0,  999.0,  999.0,  999.0,  999.0,  999.0,  999.0,  999.0,  999.0,  999.0,  999.0,  999.0,  999.0,  999.0,  999.0,  999.0,  999.0,  999.0,  999.0,  999.0,  999.0,  999.0,   -1.2,  999.0,  999.0,   -2.0,  999.0,  999.0,  999.0
2001/03/07 02:10,  999.0,    1.7,    2.4,    3.9,    3.3,    2.7,    2.6,    3.5,    3.6,    2.9,    2.6,    2.1,    1.7,    2.2,    2.1,    2.1,    2.5,   -1.2,   -1.1,  999.0,  999.0,  999.0,    2.1,  999.0,  999.0,  999.0,  999.0,  999.0,  999.0,  999.0,  999.0,  999.0,  999.0,  999.0,  999.0,  999.0,  999.0,  999.0,  999.0,  999.0,  999.0,  999.0,  999.0,  999.0,  999.0,  999.0,  999.0,  999.0,  999.0,  999.0,  999.0,  999.0,   -1.9,  999.0,  999.0,  999.0,  999.0,   -2.2
2001/03/07 02:20,  999.0,    2.4,    2.0,    2.2,    3.0,    2.3,    4.1,    4.1,    2.9,    2.5,    1.7,    1.8,    1.6,    1.8,    2.4,    2.8,    3.4,   -0.3,   -1.0,  999.0,  999.0,  999.0,  999.0,  999.0,  999.0,  999.0,  999.0,  999.0,  999.0,  999.0,  999.0,  999.0,  999.0,  999.0,  999.0,  999.0,  999.0,  999.0,  999.0,  999.0,  999.0,  999.0,  999.0,  999.0,  999.0,  999.0,  999.0,  999.0,  999.0,  999.0,  999.0,  999.0,  999.0,  999.0,  999.0,  999.0,  999.0,  999.0
2001/03/07 02:30,  999.0,    4.0,    4.0,    4.1,    3.9,    4.7,    3.8,    3.6,    2.8,    3.0,    2.9,    3.4,    3.2,    3.2,    2.6,    2.3,    2.0,    1.6,    0.4,    0.1,    0.8,  999.0,  999.0,    3.2,    1.9,    3.1,  999.0,  999.0,  999.0,  999.0,  999.0,  999.0,  999.0,  999.0,  999.0,  999.0,  999.0,  999.0,  999.0,  999.0,  999.0,  999.0,  999.0,  999.0,  999.0,  999.0,  999.0,  999.0,  999.0,  999.0,  999.0,  999.0,  999.0,  999.0,  999.0,  999.0,  999.0,  999.0
2001/03/07 02:40,  999.0,    1.6,    2.6,    3.9,    5.1,    3.6,    3.3,    4.2,    5.3,    4.1,    2.3,    3.1,    2.8,    2.5,    2.6,    2.6,    1.5,   -0.0,   -0.6,    0.3,    0.0,    0.8,    1.2,  999.0,    2.7,    1.9,  999.0,  999.0,  999.0,  999.0,  999.0,  999.0,  999.0,  999.0,  999.0,    1.7,  999.0,  999.0,  999.0,  999.0,  999.0,  999.0,  999.0,  999.0,  999.0,  999.0,  999.0,  999.0,  999.0,  999.0,  999.0,  999.0,    2.1,    1.9,  999.0,  999.0,  999.0,  999.0
2001/03/07 02:50,  999.0,    1.4,    2.2,    4.2,    4.7,    3.4,    4.2,    4.3,    3.8,    3.5,    3.2,    2.9,    3.1,    2.9,    2.6,    2.0,    0.8,    0.4,   -1.2,  999.0,  999.0,  999.0,  999.0,    1.8,  999.0,  999.0,  999.0,  999.0,  999.0,  999.0,  999.0,  999.0,  999.0,  999.0,  999.0,  999.0,  999.0,  999.0,  999.0,  999.0,  999.0,  999.0,  999.0,  999.0,  999.0,  999.0,  999.0,  999.0,  999.0,  999.0,  999.0,  999.0,  999.0,  999.0,  999.0,  999.0,  999.0,  999.0
2001/03/07 03:00,  999.0,    4.4,    4.3,    3.6,    3.6,    3.9,    4.1,    3.5,    3.4,    3.5,    3.7,    3.5,    4.0,    3.3,    3.2,    2.5,   -0.6,    0.1,  999.0,   -0.8,  999.0,   -0.8,    1.4,    4.0,  999.0,  999.0,  999.0,  999.0,  999.0,  999.0,  999.0,  999.0,  999.0,  999.0,  999.0,  999.0,  999.0,  999.0,  999.0,   -1.0,  999.0,  999.0,  999.0,  999.0,  999.0,  999.0,  999.0,  999.0,  999.0,  999.0,  999.0,  999.0,  999.0,  999.0,  999.0,  999.0,  999.0,  999.0
2001/03/07 03:10,  999.0,    1.8,    4.2,    4.6,    4.6,    4.6,    4.0,    3.6,    3.8,    3.4,    3.5,    3.8,    3.6,    3.2,    3.5,    2.9,    0.7,  999.0,   -0.4,    0.1,    1.6,    1.8,  999.0,  999.0,  999.0,    3.0,  999.0,  999.0,   -0.9,  999.0,  999.0,  999.0,  999.0,  999.0,  999.0,  999.0,  999.0,  999.0,  999.0,  999.0,  999.0,  999.0,  999.0,  999.0,  999.0,  999.0,  999.0,  999.0,  999.0,  999.0,  999.0,  999.0,  999.0,  999.0,  999.0,  999.0,  999.0,  999.0
2001/03/07 03:20,  999.0,    3.2,    3.2,    5.0,    4.5,    3.9,    2.9,    3.5,    3.9,    4.0,    3.4,    4.0,    3.3,    3.1,    3.2,    2.6,    1.5,   -0.9,   -3.6,  999.0,    1.2,  999.0,    1.1,    3.3,    1.9,  999.0,  999.0,  999.0,  999.0,  999.0,    5.5,  999.0,  999.0,  999.0,  999.0,  999.0,  999.0,  999.0,  999.0,  999.0,  999.0,  999.0,  999.0,  999.0,  999.0,  999.0,  999.0,  999.0,  999.0,  999.0,  999.0,  999.0,  999.0,  999.0,  999.0,  999.0,  999.0,  999.0
2001/03/07 03:30,  999.0,    2.5,    4.6,    5.1,    3.3,    1.5,    1.0,    3.6,    3.7,    3.4,    3.9,    4.1,    3.2,    3.1,    3.1,    2.0,    1.5,   -0.2,   -1.8,  999.0,    2.3,    0.1,    1.7,  999.0,  999.0,    1.2,    1.4,    1.0,  999.0,  999.0,  999.0,  999.0,  999.0,  999.0,  999.0,  999.0,  999.0,  999.0,  999.0,  999.0,  999.0,  999.0,  999.0,  999.0,  999.0,  999.0,  999.0,  999.0,  999.0,  999.0,  999.0,  999.0,  999.0,  999.0,  999.0,  999.0,  999.0,  999.0
2001/03/07 03:40,  999.0,    4.0,    4.4,    4.8,    2.1,    4.1,    3.6,    4.3,    3.8,    4.6,    4.1,    4.4,    4.6,    3.7,    2.9,    2.4,    1.9,    0.8,    0.3,   -1.0,   -0.5,  999.0,    0.7,  999.0,  999.0,  999.0,    1.0,    1.4,  999.0,  999.0,  999.0,  999.0,  999.0,  999.0,  999.0,  999.0,  999.0,  999.0,  999.0,  999.0,  999.0,  999.0,  999.0,  999.0,  999.0,  999.0,  999.0,  999.0,  999.0,  999.0,  999.0,  999.0,  999.0,  999.0,  999.0,  999.0,  999.0,  999.0
2001/03/07 03:50,  999.0,    3.6,    4.0,    4.5,    3.0,    3.5,    2.9,    3.7,    4.7,    5.2,    4.3,    3.8,    4.3,    3.9,    3.2,    2.5,    2.2,   -0.1,   -0.2,   -0.8,    0.4,  999.0,  999.0,    2.3,  999.0,  999.0,    4.2,  999.0,  999.0,  999.0,  999.0,  999.0,  999.0,  999.0,  999.0,  999.0,  999.0,  999.0,  999.0,  999.0,  999.0,  999.0,  999.0,  999.0,  999.0,  999.0,  999.0,  999.0,  999.0,  999.0,  999.0,  999.0,  999.0,  999.0,  999.0,  999.0,  999.0,  999.0
2001/03/07 04:00,  999.0,    4.9,    4.7,    4.9,    3.4,    5.2,    3.9,    4.6,    4.7,    5.1,    4.9,    4.8,    5.5,    3.6,    4.0,    2.6,    2.2,    2.1,   -1.0,    0.6,  999.0,  999.0,  999.0,  999.0,  999.0,  999.0,  999.0,  999.0,  999.0,  999.0,  999.0,  999.0,  999.0,  999.0,  999.0,  999.0,  999.0,  999.0,  999.0,  999.0,  999.0,  999.0,  999.0,  999.0,  999.0,  999.0,  999.0,  999.0,  999.0,  999.0,  999.0,  999.0,  999.0,  999.0,  999.0,  999.0,  999.0,  999.0
2001/03/07 04:10,  999.0,    3.6,    5.3,    4.8,    4.4,    4.7,    4.7,    5.2,    5.0,    5.6,    2.6,    3.8,    5.4,    4.4,    3.7,    2.7,    1.4,    0.4,   -1.2,  999.0,  999.0,  999.0,   -0.6,    3.7,  999.0,  999.0,    1.8,  999.0,  999.0,  999.0,  999.0,   -0.1,  999.0,   -0.3,  999.0,  999.0,  999.0,  999.0,  999.0,  999.0,  999.0,  999.0,  999.0,  999.0,  999.0,  999.0,  999.0,  999.0,  999.0,  999.0,  999.0,  999.0,  999.0,  999.0,  999.0,  999.0,  999.0,  999.0
2001/03/07 04:20,  999.0,    2.5,    3.9,    4.3,    5.2,    5.0,    3.8,    4.6,    4.5,    6.6,    4.5,    4.9,    5.2,    5.9,    4.5,    3.8,  999.0,  999.0,  999.0,    2.5,  999.0,    2.0,   -0.6,    2.5,  999.0,  999.0,  999.0,  999.0,  999.0,  999.0,  999.0,  999.0,   -1.1,  999.0,  999.0,  999.0,  999.0,  999.0,  999.0,  999.0,  999.0,    0.2,    0.3,  999.0,    0.3,  999.0,    0.3,  999.0,    0.4,  999.0,  999.0,  999.0,    0.3,    0.5,    0.4,  999.0,  999.0,  999.0
2001/03/07 04:30,  999.0,    4.0,    3.6,    4.5,    3.7,    2.7,    3.9,    5.0,    5.7,  999.0,    3.4,    2.8,    4.5,    5.2,    4.6,    3.8,    2.8,    2.2,  999.0,  999.0,    1.5,  999.0,  999.0,  999.0,  999.0,  999.0,  999.0,  999.0,  999.0,  999.0,  999.0,  999.0,  999.0,  999.0,  999.0,  999.0,  999.0,  999.0,  999.0,  999.0,  999.0,  999.0,  999.0,  999.0,  999.0,  999.0,  999.0,  999.0,  999.0,  999.0,  999.0,  999.0,  999.0,  999.0,  999.0,  999.0,  999.0,  999.0
2001/03/07 04:40,  999.0,    3.2,    4.1,    3.4,    1.9,    2.4,    2.6,    4.4,    0.7,    5.0,    4.3,    4.9,  999.0,   -2.4,  999.0,    5.0,    3.4,    2.1,    1.4,    0.9,  999.0,  999.0,  999.0,  999.0,  999.0,    2.0,  999.0,  999.0,  999.0,  999.0,    3.3,  999.0,  999.0,  999.0,  999.0,    1.9,  999.0,  999.0,  999.0,  999.0,  999.0,  999.0,  999.0,  999.0,  999.0,  999.0,  999.0,  999.0,  999.0,  999.0,  999.0,  999.0,  999.0,  999.0,  999.0,  999.0,  999.0,  999.0
2001/03/07 04:50,  999.0,    3.7,    3.5,    4.2,    3.8,    2.7,    3.2,    5.2,    1.7,    5.3,    4.7,    4.2,    4.9,  999.0,    6.1,    5.4,    4.8,    4.3,    2.2,    3.1,  999.0,  999.0,  999.0,    3.3,  999.0,    2.4,  999.0,  999.0,  999.0,  999.0,  999.0,  999.0,  999.0,  999.0,  999.0,  999.0,  999.0,  999.0,  999.0,  999.0,    2.7,  999.0,  999.0,    2.9,  999.0,  999.0,  999.0,  999.0,  999.0,  999.0,  999.0,  999.0,  999.0,  999.0,  999.0,  999.0,  999.0,  999.0
2001/03/07 05:00,  999.0,    4.1,    4.8,    4.9,    3.8,    1.8,    1.6,    1.2,    5.1,    4.5,    2.2,    3.7,    3.1,    4.7,  999.0,    3.9,    3.9,    3.0,    1.7,  999.0,  999.0,  999.0,  999.0,  999.0,    2.6,    2.4,    1.8,  999.0,  999.0,  999.0,  999.0,  999.0,  999.0,  999.0,  999.0,  999.0,  999.0,  999.0,  999.0,  999.0,  999.0,  999.0,  999.0,  999.0,  999.0,  999.0,  999.0,  999.0,  999.0,  999.0,  999.0,  999.0,  999.0,  999.0,  999.0,  999.0,  999.0,  999.0
2001/03/07 05:10,  999.0,    2.9,    4.3,    4.0,    3.2,    1.7,    2.2,    3.6,    1.5,    2.6,    2.6,    2.7,    4.2,    5.0,    4.7,    4.5,    3.8,    4.1,  999.0,  999.0,  999.0,  999.0,  999.0,  999.0,    3.6,    1.3,  999.0,  999.0,  999.0,  999.0,  999.0,  999.0,  999.0,  999.0,  999.0,  999.0,  999.0,  999.0,  999.0,  999.0,  999.0,  999.0,  999.0,  999.0,  999.0,  999.0,  999.0,  999.0,  999.0,  999.0,  999.0,  999.0,  999.0,  999.0,  999.0,  999.0,  999.0,  999.0
2001/03/07 05:20,  999.0,    2.0,    4.0,    4.0,    1.5,    1.9,    1.3,    4.5,    1.6,  999.0,    1.4,    4.4,    4.8,    6.2,    7.2,    6.6,    5.2,    4.7,    3.9,  999.0,  999.0,    4.1,  999.0,    2.6,    3.0,    2.9,  999.0,  999.0,  999.0,  999.0,  999.0,  999.0,  999.0,  999.0,  999.0,  999.0,  999.0,  999.0,  999.0,  999.0,    3.3,  999.0,    0.2,  999.0,  999.0,  999.0,  999.0,  999.0,  999.0,  999.0,  999.0,  999.0,  999.0,  999.0,  999.0,  999.0,   -0.1,  999.0
2001/03/07 05:30,  999.0,    1.6,    3.3,    3.8,    2.2,    1.7,    2.8,    4.4,    5.1,    4.4,    3.6,    4.9,    4.6,    3.6,    5.5,    6.5,    5.6,    4.2,    3.7,  999.0,  999.0,  999.0,    2.0,    3.6,    3.4,    0.6,  999.0,  999.0,  999.0,  999.0,  999.0,  999.0,  999.0,  999.0,  999.0,    1.3,  999.0,  999.0,  999.0,  999.0,  999.0,  999.0,  999.0,  999.0,    1.7,  999.0,  999.0,  999.0,  999.0,  999.0,   -0.2,  999.0,  999.0,  999.0,  999.0,  999.0,  999.0,  999.0
2001/03/07 05:40,  999.0,    2.3,    4.5,    3.4,    2.2,    2.6,    0.6,    2.3,    4.1,    5.1,    1.5,    2.1,    3.6,    3.9,    3.7,    4.4,    5.3,    4.7,    3.8,  999.0,    2.3,  999.0,  999.0,  999.0,    0.9,    0.3,  999.0,  999.0,  999.0,  999.0,  999.0,  999.0,  999.0,  999.0,  999.0,  999.0,  999.0,  999.0,  999.0,  999.0,  999.0,  999.0,  999.0,  999.0,  999.0,  999.0,  999.0,  999.0,  999.0,  999.0,  999.0,  999.0,  999.0,  999.0,  999.0,  999.0,  999.0,  999.0
2001/03/07 05:50,  999.0,    7.8,    6.2,    5.7,    5.6,    4.0,    2.9,    3.5,    2.1,    5.3,    4.9,    5.1,    4.1,    3.1,    4.1,    5.1,    5.0,    3.6,    3.5,    3.7,  999.0,  999.0,  999.0,  999.0,  999.0,    1.5,  999.0,  999.0,  999.0,  999.0,  999.0,  999.0,  999.0,  999.0,  999.0,  999.0,    4.2,    1.6,  999.0,   11.3,  999.0,  999.0,  999.0,  999.0,  999.0,  999.0,  999.0,  999.0,  999.0,  999.0,  999.0,  999.0,  999.0,  999.0,  999.0,  999.0,  999.0,  999.0
2001/03/07 06:00,  999.0,    9.4,    8.5,    7.7,    6.1,    5.4,    2.8,    2.5,    3.3,    4.4,    3.9,    4.1,  999.0,    4.7,    3.9,    5.1,    5.5,    4.6,    4.1,    3.9,  999.0,  999.0,  999.0,  999.0,  999.0,  999.0,    7.0,  999.0,  999.0,  999.0,  999.0,  999.0,  999.0,  999.0,  999.0,    3.0,    1.7,    2.3,  999.0,  999.0,  999.0,  999.0,  999.0,  999.0,    3.3,  999.0,  999.0,    3.6,  999.0,    4.2,    3.4,  999.0,    3.4,  999.0,  999.0,    3.3,  999.0,    3.2
2001/03/07 06:10,  999.0,    6.2,    5.1,    5.6,    4.5,    5.0,    4.9,    3.9,    4.3,    5.7,    6.4,    5.6,    4.1,    4.3,    4.5,  999.0,    6.9,    4.9,    5.2,    4.9,  999.0,  999.0,  999.0,  999.0,  999.0,  999.0,    2.5,    2.5,  999.0,   -0.1,  999.0,  999.0,    3.3,  999.0,  999.0,    2.6,  999.0,    3.3,  999.0,  999.0,  999.0,  999.0,  999.0,    4.9,  999.0,  999.0,  999.0,  999.0,  999.0,  999.0,  999.0,  999.0,  999.0,  999.0,  999.0,  999.0,  999.0,  999.0
2001/03/07 06:20,  999.0,    0.2,   -2.1,    3.0,    4.1,    4.2,    5.2,    6.0,    6.2,    5.7,    7.0,    8.6,    8.7,    4.6,    5.4,    5.8,    7.1,    5.0,    3.8,    3.3,  999.0,  999.0,  999.0,  999.0,  999.0,    5.8,    2.3,    3.5,    2.5,  999.0,  999.0,  999.0,  999.0,    2.3,  999.0,  999.0,  999.0,  999.0,  999.0,  999.0,  999.0,  999.0,  999.0,  999.0,    0.7,  999.0,  999.0,  999.0,  999.0,  999.0,  999.0,  999.0,  999.0,  999.0,  999.0,  999.0,  999.0,  999.0
2001/03/07 06:30,  999.0,    0.7,    2.5,    3.8,    2.9,    3.8,    4.7,    4.6,    3.9,    4.6,    5.5,    6.7,    5.6,    6.2,    5.6,    7.1,    6.6,    6.2,    5.0,    2.4,    2.9,  999.0,  999.0,  999.0,  999.0,  999.0,   -0.4,  999.0,    2.5,  999.0,  999.0,  999.0,  999.0,  999.0,  999.0,  999.0,  999.0,  999.0,  999.0,    0.4,  999.0,  999.0,  999.0,  999.0,  999.0,  999.0,  999.0,  999.0,  999.0,  999.0,  999.0,  999.0,  999.0,  999.0,  999.0,  999.0,  999.0,    2.8
2001/03/07 06:40,  999.0,    2.3,    2.3,    2.5,    3.0,    1.5,    1.0,    2.6,    4.1,    5.8,    8.7,    1.5,  999.0,    6.7,    5.6,    8.5,    7.9,    5.9,    4.7,    4.0,    3.1,  999.0,  999.0,  999.0,    5.5,  999.0,    2.0,  999.0,    0.7,  999.0,  999.0,  999.0,  999.0,  999.0,  999.0,    3.5,  999.0,  999.0,  999.0,  999.0,  999.0,  999.0,  999.0,  999.0,  999.0,  999.0,  999.0,  999.0,  999.0,    0.9,    0.9,  999.0,    0.7,  999.0,    0.7,  999.0,  999.0,  999.0
2001/03/07 06:50,  999.0,    1.6,    2.7,    2.7,    2.3,    2.5,    2.6,    3.7,    5.2,    8.1,    7.1,    0.3,    8.8,    6.8,    7.0,    8.3,    6.9,    6.4,    4.2,    2.0,  999.0,  999.0,  999.0,  999.0,  999.0,  999.0,  999.0,  999.0,  999.0,  999.0,  999.0,  999.0,  999.0,  999.0,  999.0,  999.0,  999.0,  999.0,  999.0,    2.8,  999.0,  999.0,  999.0,  999.0,  999.0,  999.0,  999.0,  999.0,  999.0,  999.0,  999.0,  999.0,  999.0,  999.0,  999.0,  999.0,  999.0,  999.0
2001/03/07 07:00,  999.0,    1.6,    2.0,    2.5,    3.3,    2.4,    2.1,    5.2,    9.3,    7.9,    8.8,    9.0,    6.8,    7.7,    7.4,   11.1,    8.4,    6.5,    5.1,  999.0,  999.0,  999.0,  999.0,    7.5,  999.0,  999.0,    1.1,  999.0,  999.0,  999.0,  999.0,  999.0,  999.0,  999.0,  999.0,  999.0,    2.5,  999.0,  999.0,  999.0,  999.0,    2.2,  999.0,  999.0,  999.0,  999.0,  999.0,  999.0,  999.0,  999.0,  999.0,  999.0,  999.0,  999.0,  999.0,  999.0,  999.0,  999.0
2001/03/07 07:10,  999.0,    0.9,    2.9,    4.7,    5.0,    3.6,    5.9,    7.7,    7.0,    9.0,  999.0,    9.4,    8.4,    6.5,    8.8,    8.1,    7.3,    6.2,    6.4,    6.3,  999.0,    6.0,  999.0,  999.0,  999.0,  999.0,  999.0,    4.4,  999.0,  999.0,  999.0,  999.0,  999.0,  999.0,  999.0,  999.0,  999.0,  999.0,    1.8,  999.0,  999.0,  999.0,  999.0,  999.0,  999.0,  999.0,  999.0,  999.0,  999.0,  999.0,  999.0,  999.0,  999.0,  999.0,  999.0,  999.0,  999.0,  999.0
2001/03/07 07:20,  999.0,    1.8,    3.4,    5.6,    3.9,    6.6,    6.7,    5.1,    5.4,    8.3,   10.3,    7.6,    9.4,    9.2,    8.5,    9.1,    9.7,    6.5,    6.3,    5.2,    5.3,  999.0,  999.0,  999.0,  999.0,  999.0,  999.0,  999.0,    4.0,  999.0,  999.0,  999.0,  999.0,  999.0,  999.0,  999.0,  999.0,  999.0,  999.0,    4.3,  999.0,  999.0,  999.0,  999.0,  999.0,  999.0,  999.0,  999.0,  999.0,  999.0,  999.0,  999.0,  999.0,  999.0,  999.0,  999.0,  999.0,  999.0
2001/03/07 07:30,  999.0,    0.4,    3.4,    3.4,    4.1,    2.2,    5.7,    5.9,    6.1,   10.6,    9.1,   11.4,    9.2,   10.4,    8.5,    8.7,    9.9,    6.9,    6.8,    5.3,  999.0,  999.0,  999.0,  999.0,  999.0,  999.0,  999.0,  999.0,  999.0,  999.0,  999.0,  999.0,  999.0,  999.0,  999.0,  999.0,  999.0,  999.0,  999.0,  999.0,  999.0,  999.0,  999.0,  999.0,  999.0,  999.0,  999.0,  999.0,  999.0,  999.0,  999.0,  999.0,  999.0,  999.0,  999.0,  999.0,  999.0,  999.0
2001/03/07 07:40,  999.0,    3.2,    4.6,    4.4,    3.9,    2.1,    1.4,    7.0,    8.0,    7.5,    7.7,   11.0,   11.3,    6.3,    7.8,    6.8,    7.8,    6.7,    6.2,    6.2,    5.2,  999.0,  999.0,  999.0,  999.0,  999.0,  999.0,  999.0,  999.0,  999.0,  999.0,  999.0,  999.0,  999.0,  999.0,  999.0,  999.0,  999.0,  999.0,  999.0,  999.0,  999.0,  999.0,  999.0,  999.0,  999.0,  999.0,  999.0,  999.0,  999.0,  999.0,  999.0,  999.0,  999.0,  999.0,  999.0,  999.0,  999.0
2001/03/07 07:50,  999.0,    1.7,    2.9,    4.7,    4.7,    1.2,    0.8,    4.6,    5.8,    7.5,    9.0,    7.7,    7.2,    7.1,    9.5,   10.5,    8.3,    6.6,    5.5,    5.6,  999.0,  999.0,    4.2,  999.0,  999.0,  999.0,  999.0,  999.0,  999.0,  999.0,  999.0,  999.0,  999.0,  999.0,  999.0,  999.0,  999.0,  999.0,  999.0,  999.0,  999.0,  999.0,  999.0,  999.0,  999.0,  999.0,  999.0,  999.0,  999.0,  999.0,  999.0,  999.0,  999.0,  999.0,  999.0,  999.0,  999.0,  999.0
2001/03/07 08:00,  999.0,    3.7,    4.0,    6.3,    4.6,    6.2,    8.3,    8.2,    7.5,    8.5,   12.1,    9.4,    8.4,    8.5,    8.8,   11.8,   11.1,    6.1,    6.1,    7.0,  999.0,  999.0,    6.6,    4.8,    4.4,    4.5,  999.0,  999.0,  999.0,  999.0,  999.0,  999.0,    7.3,    9.0,  999.0,  999.0,  999.0,  999.0,  999.0,  999.0,   21.4,  999.0,  999.0,  999.0,  999.0,  999.0,  999.0,  999.0,  999.0,  999.0,  999.0,  999.0,   25.2,  999.0,  999.0,  999.0,  999.0,   26.6
2001/03/07 08:10,  999.0,    2.9,    4.3,    3.0,    6.5,    7.1,    6.5,    7.5,   10.5,   10.9,   11.8,   12.0,   10.9,   10.0,    9.2,   12.5,   11.2,   12.7,    7.0,    7.0,    7.2,    7.2,  999.0,  999.0,    9.3,    8.1,  999.0,   11.1,  999.0,  999.0,  999.0,  999.0,  999.0,  999.0,  999.0,  999.0,  999.0,  999.0,   16.8,  999.0,  999.0,  999.0,   23.8,  999.0,   25.5,  999.0,  999.0,  999.0,  999.0,   26.1,  999.0,  999.0,  999.0,  999.0,   26.3,  999.0,  999.0,  999.0
2001/03/07 08:20,  999.0,    3.3,    1.0,    8.7,    7.0,    4.9,    7.7,    8.4,    8.1,    8.7,    8.2,   12.6,   11.3,    7.7,    9.6,    7.2,   10.0,    9.8,    6.0,    5.4,    7.6,  999.0,  999.0,  999.0,    5.4,    6.6,  999.0,  999.0,  999.0,  999.0,  999.0,  999.0,  999.0,  999.0,  999.0,  999.0,  999.0,  999.0,  999.0,  999.0,  999.0,  999.0,  999.0,  999.0,  999.0,  999.0,  999.0,  999.0,  999.0,  999.0,  999.0,  999.0,  999.0,  999.0,  999.0,  999.0,  999.0,  999.0
2001/03/07 08:30,  999.0,    1.6,    2.0,    3.2,    3.5,    5.4,    6.2,    6.3,    8.4,    8.5,    8.3,    9.1,   10.3,   11.9,   10.4,    9.3,    9.0,    9.0,    6.4,    5.8,    5.9,  999.0,  999.0,    2.2,    4.8,    3.3,  999.0,  999.0,  999.0,  999.0,  999.0,  999.0,  999.0,  999.0,  999.0,  999.0,  999.0,  999.0,  999.0,  999.0,  999.0,  999.0,  999.0,  999.0,  999.0,  999.0,  999.0,  999.0,  999.0,  999.0,  999.0,  999.0,  999.0,  999.0,  999.0,  999.0,  999.0,  999.0
2001/03/07 08:40,  999.0,    2.1,    3.6,    4.9,    4.9,    6.0,    5.7,    6.8,    8.2,    7.9,    7.7,    8.2,   10.0,    9.0,    9.2,    9.4,    9.4,    8.8,    7.7,    6.1,    6.7,    7.7,  999.0,    4.2,    3.6,  999.0,  999.0,  999.0,  999.0,  999.0,  999.0,  999.0,  999.0,  999.0,  999.0,  999.0,  999.0,  999.0,   22.0,  999.0,  999.0,  999.0,  999.0,  999.0,  999.0,  999.0,  999.0,  999.0,  999.0,  999.0,  999.0,  999.0,  999.0,  999.0,  999.0,  999.0,  999.0,  999.0
2001/03/07 08:50,  999.0,    2.3,    2.4,    2.6,    3.2,    4.6,    5.0,    7.3,    7.8,    8.4,    7.4,    7.2,   11.0,   15.1,   12.1,    9.8,   10.4,   10.0,    8.7,    8.7,    7.2,    6.1,  999.0,  999.0,    3.9,    3.9,  999.0,  999.0,  999.0,  999.0,  999.0,  999.0,  999.0,  999.0,  999.0,  999.0,  999.0,  999.0,  999.0,  999.0,  999.0,  999.0,  999.0,  999.0,  999.0,  999.0,  999.0,  999.0,  999.0,  999.0,  999.0,  999.0,  999.0,  999.0,  999.0,  999.0,  999.0,  999.0
2001/03/07 09:00,  999.0,    3.2,    2.5,    2.8,    5.1,    6.3,    7.1,    7.4,    7.8,    8.4,    8.8,    8.2,   10.3,   12.6,   12.4,   10.5,    9.2,    9.7,  999.0,    8.2,    7.0,    6.9,  999.0,  999.0,  999.0,    5.7,  999.0,  999.0,  999.0,  999.0,  999.0,  999.0,  999.0,  999.0,  999.0,  999.0,  999.0,  999.0,  999.0,  999.0,  999.0,  999.0,  999.0,  999.0,  999.0,  999.0,  999.0,  999.0,  999.0,  999.0,  999.0,  999.0,  999.0,  999.0,  999.0,  999.0,  999.0,  999.0
2001/03/07 09:10,  999.0,    2.4,    5.0,    5.2,    5.0,    5.9,    6.5,    6.3,    7.7,    7.0,    7.1,    7.7,    8.3,    9.0,    8.6,    9.5,    9.4,   10.0,    9.8,    8.6,    7.6,    7.2,    8.8,    5.0,    5.5,    7.2,  999.0,  999.0,  999.0,    8.7,  999.0,  999.0,  999.0,  999.0,  999.0,  999.0,  999.0,  999.0,  999.0,  999.0,  999.0,  999.0,  999.0,  999.0,   29.1,  999.0,  999.0,  999.0,  999.0,  999.0,  999.0,  999.0,  999.0,  999.0,  999.0,  999.0,  999.0,  999.0
2001/03/07 09:20,  999.0,    0.4,    1.7,    2.1,    1.9,    3.3,    3.1,    5.1,    6.4,    8.4,    7.8,    9.1,    8.0,    7.5,    8.2,    8.8,    9.1,    8.0,    6.8,    6.4,    5.1,    4.7,    3.6,  999.0,  999.0,  999.0,  999.0,  999.0,  999.0,  999.0,  999.0,  999.0,  999.0,  999.0,  999.0,  999.0,  999.0,  999.0,  999.0,  999.0,  999.0,   25.5,   22.5,  999.0,  999.0,  999.0,  999.0,  999.0,  999.0,  999.0,  999.0,  999.0,  999.0,  999.0,  999.0,  999.0,  999.0,  999.0
2001/03/07 09:30,  999.0,    3.1,    4.2,    4.9,    5.7,    6.4,    7.1,    7.6,    8.4,    7.5,    8.3,    7.6,    7.8,    8.0,    7.5,    5.8,    7.6,    8.7,    7.4,    6.3,    5.8,    6.4,    6.0,    3.5,    6.1,  999.0,  999.0,  999.0,  999.0,  999.0,  999.0,  999.0,  999.0,  999.0,  999.0,  999.0,  999.0,  999.0,  999.0,  999.0,  999.0,  999.0,   28.9,  999.0,  999.0,  999.0,  999.0,  999.0,  999.0,  999.0,  999.0,  999.0,  999.0,  999.0,  999.0,  999.0,  999.0,  999.0
2001/03/07 09:40,  999.0,    2.4,    2.5,    3.6,    3.7,    3.0,    5.9,    6.3,    6.4,    6.4,    6.5,    7.1,    7.6,    7.4,    8.8,    8.2,    6.3,    8.2,    7.4,    6.6,    5.9,    5.3,    4.7,    5.5,    5.0,  999.0,  999.0,  999.0,  999.0,   12.9,   14.2,   10.1,  999.0,  999.0,  999.0,  999.0,   24.4,  999.0,  999.0,   28.0,  999.0,  999.0,  999.0,  999.0,  999.0,  999.0,  999.0,  999.0,  999.0,  999.0,  999.0,  999.0,  999.0,  999.0,  999.0,  999.0,  999.0,  999.0
2001/03/07 09:50,  999.0,    2.1,    2.6,    5.1,    5.4,    5.1,    3.1,    8.5,    8.4,    8.6,    8.0,    9.7,    7.9,    7.6,    8.1,    7.6,    8.0,    7.8,    7.2,    6.6,    6.2,    6.8,    7.2,    5.0,  999.0,  999.0,  999.0,  999.0,  999.0,  999.0,  999.0,  999.0,  999.0,  999.0,  999.0,  999.0,  999.0,  999.0,  999.0,  999.0,  999.0,  999.0,  999.0,  999.0,  999.0,  999.0,  999.0,  999.0,  999.0,  999.0,  999.0,  999.0,  999.0,  999.0,  999.0,  999.0,  999.0,  999.0
2001/03/07 10:00,  999.0,    1.6,    2.3,    4.1,    4.2,    3.7,    3.5,    5.9,    7.3,    9.0,   10.5,   10.1,   10.0,    9.0,    9.2,    9.0,    9.3,    8.8,    7.6,    5.8,    6.4,  999.0,    5.5,    5.7,    3.0,  999.0,  999.0,  999.0,  999.0,  999.0,  999.0,  999.0,  999.0,  999.0,  999.0,  999.0,  999.0,  999.0,  999.0,  999.0,  999.0,  999.0,  999.0,  999.0,  999.0,  999.0,  999.0,  999.0,  999.0,  999.0,  999.0,  999.0,  999.0,  999.0,  999.0,  999.0,  999.0,  999.0
2001/03/07 10:10,  999.0,    1.9,    2.6,    3.7,    4.9,    5.6,    6.3,    7.8,    8.3,    8.6,    8.4,    7.9,    7.9,    8.1,    8.0,    8.7,    8.6,    8.6,    9.2,    8.4,    7.7,    6.3,  999.0,  999.0,  999.0,  999.0,  999.0,  999.0,  999.0,  999.0,   29.3,  999.0,  999.0,  999.0,  999.0,  999.0,  999.0,  999.0,  999.0,  999.0,  999.0,  999.0,  999.0,  999.0,  999.0,  999.0,  999.0,  999.0,  999.0,  999.0,  999.0,  999.0,  999.0,  999.0,  999.0,  999.0,  999.0,  999.0
2001/03/07 10:20,  999.0,    0.9,    4.5,    5.0,    4.9,    5.0,    5.6,    6.4,    6.2,    6.2,    6.2,    6.0,    6.2,    7.3,    6.9,    7.0,    8.0,    8.5,    9.9,    8.6,    8.2,    6.5,    8.2,    4.9,    4.4,  999.0,  999.0,  999.0,  999.0,  999.0,  999.0,  999.0,  999.0,  999.0,  999.0,  999.0,  999.0,  999.0,  999.0,  999.0,  999.0,  999.0,  999.0,  999.0,  999.0,  999.0,  999.0,  999.0,  999.0,  999.0,  999.0,  999.0,  999.0,  999.0,  999.0,  999.0,  999.0,  999.0
2001/03/07 10:30,  999.0,    1.4,    2.4,    2.2,    2.9,    4.1,    5.0,    6.3,    7.5,    8.6,    9.4,    8.6,    9.4,    8.6,    8.0,    8.0,    8.7,    8.6,    8.4,    8.8,    5.7,    6.8,  999.0,    6.0,  999.0,  999.0,  999.0,  999.0,  999.0,  999.0,  999.0,  999.0,  999.0,   28.2,  999.0,   29.9,  999.0,  999.0,  999.0,  999.0,  999.0,  999.0,  999.0,  999.0,  999.0,  999.0,  999.0,  999.0,  999.0,  999.0,  999.0,  999.0,  999.0,  999.0,  999.0,  999.0,  999.0,  999.0
2001/03/07 10:40,  999.0,    1.1,    2.3,    3.3,    3.8,    4.3,    5.0,    5.8,    5.7,    5.5,    5.2,    5.7,    6.1,    6.1,    6.5,    6.8,    7.3,    7.9,    7.2,    6.4,    6.3,    6.1,    6.0,    2.3,  999.0,  999.0,  999.0,   27.7,  999.0,  999.0,   27.6,   29.4,  999.0,  999.0,  999.0,  999.0,  999.0,  999.0,  999.0,  999.0,  999.0,  999.0,  999.0,  999.0,  999.0,  999.0,  999.0,  999.0,  999.0,  999.0,  999.0,  999.0,  999.0,  999.0,  999.0,  999.0,  999.0,  999.0
2001/03/07 10:50,  999.0,    0.5,    0.5,    1.1,    1.9,    2.7,    2.1,    3.7,    4.5,    5.9,    7.3,    7.3,    7.9,    8.3,    8.6,    8.8,    9.7,    9.8,    8.6,    7.5,    5.9,    5.2,    6.0,    5.0,    6.3,  999.0,  999.0,  999.0,  999.0,   27.7,   29.1,  999.0,  999.0,  999.0,  999.0,  999.0,  999.0,  999.0,  999.0,  999.0,  999.0,  999.0,  999.0,  999.0,  999.0,  999.0,  999.0,  999.0,  999.0,  999.0,  999.0,  999.0,  999.0,  999.0,  999.0,  999.0,  999.0,  999.0
2001/03/07 11:00,  999.0,    0.3,    0.7,   -0.8,    2.2,    5.0,    3.9,    4.0,    3.8,    4.8,    5.3,    5.7,    6.3,    6.1,    6.2,    6.5,    7.2,    8.2,    8.9,    7.3,    5.9,    5.0,    4.5,  999.0,  999.0,  999.0,  999.0,   26.9,  999.0,  999.0,  999.0,  999.0,  999.0,  999.0,  999.0,  999.0,  999.0,  999.0,  999.0,  999.0,  999.0,  999.0,  999.0,  999.0,  999.0,  999.0,  999.0,  999.0,  999.0,  999.0,  999.0,  999.0,  999.0,  999.0,  999.0,  999.0,  999.0,  999.0
2001/03/07 11:10,  999.0,   -0.2,    5.0,    2.6,    2.4,    3.8,    4.6,    5.1,    5.1,    6.1,    6.4,    5.7,    6.2,    6.5,    6.6,    6.5,    7.2,    5.5,    5.9,    3.3,    2.4,    3.8,    4.7,    4.8,    5.3,    5.3,    7.0,  999.0,   20.8,   20.7,  999.0,   22.1,   23.1,   24.4,  999.0,  999.0,  999.0,   28.5,  999.0,  999.0,  999.0,  999.0,  999.0,  999.0,  999.0,  999.0,  999.0,  999.0,  999.0,  999.0,  999.0,  999.0,  999.0,  999.0,  999.0,  999.0,  999.0,  999.0
2001/03/07 11:20,  999.0,    1.9,    2.4,    2.1,    2.4,    3.5,    5.3,    6.9,    7.2,    8.0,    8.2,    8.8,    9.7,    8.5,    7.0,    6.0,    3.1,    4.1,    6.3,    3.9,    4.0,    2.3,    2.7,    3.9,    4.6,    2.9,    4.2,  999.0,  999.0,  999.0,  999.0,  999.0,  999.0,  999.0,  999.0,  999.0,  999.0,  999.0,  999.0,  999.0,  999.0,  999.0,  999.0,  999.0,  999.0,  999.0,  999.0,  999.0,  999.0,  999.0,  999.0,  999.0,  999.0,  999.0,  999.0,  999.0,  999.0,  999.0
2001/03/07 11:30,  999.0,   -1.2,    0.1,    0.0,    1.1,    2.3,    2.6,    4.1,    5.3,    5.5,    6.9,    7.2,    6.8,    6.6,    6.9,    6.3,    6.0,    6.1,    5.5,    6.5,    7.5,    6.9,    6.8,    6.0,    5.0,    4.7,    4.9,    4.6,  999.0,  999.0,  999.0,  999.0,  999.0,  999.0,  999.0,  999.0,   27.4,  999.0,  999.0,  999.0,  999.0,  999.0,  999.0,  999.0,  999.0,  999.0,  999.0,  999.0,  999.0,  999.0,  999.0,  999.0,  999.0,  999.0,  999.0,  999.0,  999.0,  999.0
2001/03/07 11:40,  999.0,   -0.6,    0.1,    1.3,    2.3,    3.2,    2.9,    5.0,    6.5,    6.7,    6.9,    8.5,    8.7,    7.0,    9.0,    7.9,    6.8,    7.8,    7.1,    7.9,    8.1,    7.4,    6.7,    8.2,  999.0,  999.0,  999.0,  -15.5,  999.0,  -13.1,  -12.2,  999.0,  999.0,   -8.1,   -7.2,  999.0,  999.0,   -3.7,   -2.2,  999.0,  999.0,   20.4,  999.0,   -0.5,   -1.0,  999.0,   20.2,  999.0,   -1.2,  999.0,  999.0,  999.0,   20.3,  999.0,   -1.0,   20.4,  999.0,  999.0
2001/03/07 11:50,  999.0,    2.5,    1.3,    2.1,    1.5,    1.8,    2.2,    2.8,    2.9,    3.4,    3.7,    4.9,    5.0,    7.0,    6.8,    5.9,    7.0,    5.5,    4.4,    3.5,    4.2,    3.6,    4.7,    6.1,    7.8,    7.4,    8.1,  999.0,  999.0,  999.0,  999.0,  999.0,  999.0,  999.0,  999.0,  999.0,  999.0,  999.0,  999.0,  999.0,  999.0,  999.0,  999.0,  999.0,  999.0,  999.0,  999.0,  999.0,  999.0,  999.0,  999.0,  999.0,  999.0,  999.0,  999.0,  999.0,  999.0,  999.0
2001/03/07 12:00,  999.0,    0.2,    0.3,   -0.2,    0.9,    2.4,    3.1,    4.9,    4.4,    3.7,    5.1,    7.0,    8.1,    7.9,    7.8,    7.8,    6.4,    5.3,    5.5,    5.2,    3.8,    2.6,    2.6,    3.5,    3.6,    4.7,    6.9,    6.8,  999.0,  999.0,    3.4,  999.0,  999.0,  999.0,  999.0,  999.0,  999.0,  999.0,  999.0,  999.0,  999.0,  999.0,  999.0,  999.0,  999.0,  -24.2,  999.0,  -24.5,  -24.1,  999.0,  999.0,  999.0,  999.0,  -24.6,  999.0,  999.0,  999.0,  999.0
2001/03/07 12:10,  999.0,    0.4,    0.0,    0.0,    0.4,    0.6,    1.1,    2.7,    4.4,    5.2,    5.7,    5.9,    6.1,    5.8,    5.9,    5.7,    6.4,    6.9,    5.7,    4.0,    3.4,    4.2,    3.0,    3.1,    4.5,    4.8,    3.3,    3.0,    2.5,    1.8,    2.0,    2.6,    3.1,    3.8,    2.6,  999.0,  999.0,  999.0,  999.0,  999.0,  999.0,  999.0,  999.0,  999.0,  999.0,  999.0,  999.0,  999.0,  999.0,  999.0,  999.0,  999.0,  999.0,  999.0,  999.0,  999.0,  999.0,  999.0
2001/03/07 12:20,  999.0,    0.8,    1.2,    1.0,    1.2,    0.9,    1.1,    1.6,    2.5,    4.8,    4.2,    5.8,    6.2,    6.0,    6.8,    6.6,    7.4,    7.0,    6.1,    6.9,    5.6,    4.6,    4.4,    3.6,    4.8,    3.8,    3.7,    4.2,    3.5,    3.5,    3.7,    3.8,    3.1,    3.0,    3.3,    3.6,    2.0,    2.3,    3.3,    5.4,  999.0,    5.7,  999.0,    4.9,  999.0,    9.8,  999.0,  999.0,  999.0,  999.0,  999.0,  999.0,  999.0,  999.0,  999.0,  999.0,  999.0,  999.0
2001/03/07 12:30,  999.0,    0.1,    2.2,    2.2,    2.3,    3.5,    3.0,    2.4,    2.7,    3.0,    2.9,    5.2,    5.7,    6.8,    6.9,    6.2,    6.6,    6.4,    6.7,    6.3,    5.2,    5.7,    6.2,    5.4,    4.3,    3.6,    3.0,    2.9,    3.1,    3.1,    3.6,    4.4,    3.0,    2.6,    2.6,    2.0,    2.5,    3.0,    3.7,    0.8,  999.0,   -5.9,  999.0,  999.0,  999.0,    4.3,    3.9,  999.0,  999.0,  999.0,  999.0,  999.0,  999.0,  999.0,  999.0,  999.0,  999.0,  999.0
2001/03/07 12:40,  999.0,    1.6,    3.5,    3.9,    3.9,    4.1,    1.4,    1.8,    2.7,    4.5,    1.6,    2.8,    4.9,    6.2,    7.4,    8.0,    7.4,    8.7,   10.7,    7.3,    4.7,    5.2,    5.4,    5.3,    4.4,    4.3,    4.7,    4.4,    2.9,    2.8,    2.9,    2.4,    2.3,    2.9,    3.3,    3.9,    3.9,    4.5,    3.7,    3.4,    3.7,    4.6,    4.1,    3.1,  999.0,   -0.2,  999.0,  999.0,  999.0,   -1.7,  999.0,  999.0,  999.0,  999.0,  999.0,  999.0,  999.0,  999.0
2001/03/07 12:50,  999.0,    0.4,    0.4,    0.6,    1.0,    1.4,    1.7,    3.5,    4.3,    4.4,    4.3,    5.1,    5.6,    6.1,    6.3,    6.2,    6.4,    5.5,    5.3,    5.5,    5.8,    6.2,    5.3,    5.8,    5.0,    4.6,    4.3,    3.7,    3.6,    3.4,    3.7,    3.9,    2.1,    2.1,    3.1,    3.3,    3.9,    3.9,    4.1,    3.8,  999.0,  999.0,  999.0,  999.0,  999.0,  999.0,   20.0,  999.0,  999.0,  999.0,  999.0,  999.0,  999.0,  999.0,  999.0,  999.0,  999.0,  999.0
2001/03/07 13:00,  999.0,    0.6,    1.0,    1.6,    1.9,    1.8,    0.9,    1.6,    2.7,    5.1,    2.1,    3.3,    4.5,    4.4,    6.0,    5.3,    4.6,    5.2,    2.1,  999.0,  999.0,    6.2,    5.4,    5.8,    5.2,    5.4,    4.1,    4.6,    5.0,    4.2,    4.1,    4.3,    3.5,    3.0,    2.9,    3.1,    2.7,    2.4,    2.5,    0.5,    5.3,    3.9,   11.9,  999.0,    9.1,  999.0,  999.0,  999.0,  999.0,  999.0,  999.0,   -4.5,  999.0,   -0.8,   -0.5,   -0.3,  999.0,   -0.9
2001/03/07 13:10,  999.0,    1.3,    3.2,    3.7,    3.1,    3.0,    4.0,    5.5,    5.0,    5.6,    3.1,    2.7,    6.7,    7.1,    7.4,    4.2,    4.2,    4.2,    4.6,    5.2,    1.7,    3.9,    4.6,    2.5,    4.3,    3.5,    5.0,    5.0,    4.7,    4.2,    4.3,    0.6,    3.2,    3.3,    3.2,    5.9,    7.7,   11.9,   11.8,   11.2,  999.0,  999.0,   15.7,   12.4,  999.0,  999.0,  999.0,  999.0,  999.0,  999.0,   20.2,   20.1,   21.2,  999.0,   19.0,  999.0,  999.0,  999.0
2001/03/07 13:20,  999.0,    0.5,    3.3,    3.6,    4.6,    4.9,    4.4,    7.0,    5.5,    6.1,    4.8,    6.1,    5.7,    6.1,    6.7,    7.4,    7.7,    6.7,    6.3,    6.2,    5.9,    5.4,    5.4,    5.0,    6.3,    6.4,    6.5,    5.4,    5.0,    4.6,    3.7,    3.2,    2.8,    1.7,    1.3,    1.6,    1.7,    2.3,    1.4,    0.7,    4.0,    2.5,    3.0,    2.8,    2.8,    3.4,    3.1,  999.0,  999.0,  999.0,  999.0,  999.0,   -1.9,   -2.8,  999.0,  999.0,  999.0,  999.0
2001/03/07 13:30,  999.0,    0.5,    0.6,    0.6,    0.3,    0.5,    0.7,    1.8,    3.0,    5.3,    2.1,    3.5,    5.5,    5.2,    4.7,    4.5,    4.5,    5.5,    6.5,    6.4,    6.9,    6.7,    6.8,    7.7,    7.8,    7.5,    6.0,    5.8,    4.8,    4.4,    4.5,    4.5,    4.1,    3.7,    3.7,    3.9,    3.4,    1.2,    2.6,  999.0,    5.2,    2.3,    4.4,    4.1,    4.5,    3.9,    4.1,  999.0,    3.5,  999.0,    8.6,    8.0,   13.2,  999.0,  999.0,  999.0,   15.9,  999.0
2001/03/07 13:40,  999.0,    0.3,    0.6,    0.7,    0.3,    0.8,    1.5,    2.8,    2.7,    6.7,    5.3,    6.3,    5.7,    6.3,    5.3,    5.1,    7.4,    7.3,    6.7,    7.2,    7.1,    6.8,    6.4,    6.7,    6.7,    6.0,    4.9,    5.3,    5.9,    4.7,    4.0,    4.5,    3.5,    2.9,    2.1,    1.4,    2.3,    6.6,    7.1,    3.1,    4.0,    1.6,    6.0,   10.9,   10.9,    9.2,  999.0,   15.3,    6.4,  999.0,   11.9,    8.9,    7.3,    9.3,  999.0,  999.0,  999.0,  999.0
2001/03/07 13:50,  999.0,    0.5,    0.9,    1.5,    0.6,    1.0,    0.8,    1.3,    2.1,    3.1,    3.9,    5.0,    5.9,    5.7,    5.8,    6.1,    6.2,    6.1,    6.1,    5.9,    4.8,    5.5,    5.4,    4.8,    4.4,    3.7,    3.4,    2.9,    3.3,    4.1,    4.1,    4.4,    5.1,    3.9,    2.7,    2.6,    1.9,  999.0,  999.0,    2.8,    1.5,    2.0,    3.5,    4.3,    4.8,  999.0,  999.0,  999.0,  999.0,  999.0,    5.2,    5.6,    8.2,  999.0,  999.0,  999.0,  999.0,  999.0
2001/03/07 14:00,  999.0,    2.1,    2.1,    2.3,    2.2,    1.3,    0.4,    3.3,    4.2,    4.9,    4.5,    4.7,    4.3,    4.7,    4.5,    3.9,    4.1,    3.2,    2.6,    3.2,    3.6,    3.8,    3.9,    4.4,    4.7,    4.1,    4.3,    3.3,    3.9,    3.9,    4.0,    3.1,    3.4,  999.0,    5.7,    5.1,    4.8,    4.7,    3.0,    4.2,    4.4,    3.8,    3.8,    4.4,    5.5,    4.7,    6.5,    7.7,  999.0,  999.0,   14.1,   11.4,   13.2,   15.0,  999.0,   13.8,  999.0,  999.0
2001/03/07 14:10,  999.0,    1.4,    2.6,    2.2,    2.7,    2.2,    3.0,    3.2,    3.1,    5.6,    5.4,    6.7,    7.4,    7.2,    7.0,    6.3,    5.8,    5.4,    4.3,    4.7,    4.4,    5.1,    4.1,    4.1,    4.4,    3.6,    3.9,    4.4,    3.9,    4.9,    4.6,    5.1,    4.8,    5.0,    5.6,  999.0,  999.0,  999.0,  999.0,  999.0,    8.5,  999.0,  999.0,    6.3,  999.0,  999.0,   10.5,    6.5,  999.0,  999.0,  999.0,  999.0,    9.1,   11.3,   15.4,  999.0,  999.0,  999.0
2001/03/07 14:20,  999.0,    1.8,    1.3,    2.2,    3.8,    4.8,    4.1,    5.1,    5.2,    6.1,    6.3,    6.2,    6.5,    7.5,    7.7,    6.8,    5.8,    6.2,    5.5,    5.0,    4.5,    4.0,    4.3,    4.3,    5.4,    4.7,    4.3,    3.5,    3.8,    3.8,    5.2,    5.1,    5.4,    4.1,    2.0,    1.7,    1.6,    2.5,    1.7,    8.5,  999.0,  999.0,   13.1,    4.5,   13.8,    5.6,   16.8,  999.0,  999.0,  999.0,  999.0,   14.3,   19.4,  999.0,  999.0,  999.0,  999.0,  999.0
2001/03/07 14:30,  999.0,    0.8,    1.9,    2.7,    3.3,    4.9,    5.8,    4.2,    5.8,    7.2,    6.6,    6.0,    6.6,    6.6,    6.4,    7.0,    7.1,    6.5,    5.9,    5.7,    5.4,    4.6,    4.6,    4.3,    4.3,    5.5,    5.4,    6.0,    5.3,    4.3,    5.3,    4.7,    4.1,    2.5,    2.0,    2.8,    3.7,    4.5,    4.0,    5.2,    8.2,  999.0,    9.6,   11.9,   19.5,  999.0,   13.5,  999.0,   15.8,   18.0,   18.9,   17.5,   17.7,   16.7,  999.0,  999.0,  999.0,  999.0
2001/03/07 14:40,  999.0,    0.4,    3.3,    4.6,    4.3,    3.8,    4.2,    6.6,    8.4,    8.2,    4.1,    4.1,    6.3,    6.0,    5.9,    5.4,    5.6,    5.3,    4.4,    4.5,    5.2,    5.0,    4.2,    3.5,    4.7,    3.8,    5.8,  999.0,  999.0,    3.3,    3.3,    2.6,    2.0,    2.0,    1.4,    1.2,    1.9,    1.6,    2.5,    2.4,  999.0,  999.0,  999.0,  999.0,  999.0,  999.0,   12.4,   15.0,  999.0,   13.2,    9.5,   22.1,   25.7,  999.0,   20.5,  999.0,  999.0,  999.0
2001/03/07 14:50,  999.0,    0.5,    1.6,    3.8,    2.7,    2.0,    1.1,    3.3,    2.9,    7.9,    6.8,    8.6,    8.1,    7.0,    6.9,    6.5,    6.3,    6.6,    6.5,    6.3,    4.6,    6.5,    6.8,    7.0,    7.8,    6.4,    4.7,    5.1,  999.0,  999.0,    5.4,    4.3,    3.6,    3.1,    2.1,    2.3,    2.5,    3.1,  999.0,  999.0,    5.9,  999.0,  999.0,  999.0,  999.0,   12.8,  999.0,  999.0,   11.0,   11.9,   13.6,   14.2,   16.8,  999.0,  999.0,  999.0,  999.0,  999.0
2001/03/07 15:00,  999.0,    2.0,    2.6,    2.7,    3.7,    3.0,    1.8,    2.8,    4.1,    6.3,    7.0,    7.6,    7.3,    7.0,    6.9,    6.4,    7.0,    7.0,    7.3,    4.6,    6.3,    5.8,    5.9,    6.9,    6.7,    6.9,    6.4,    5.3,    5.7,  999.0,    1.8,    2.8,    4.5,    3.3,    2.6,    2.0,    2.2,  999.0,  999.0,    3.9,  999.0,  999.0,  999.0,    4.8,    8.3,   10.4,   14.1,   14.2,  999.0,  999.0,   17.4,   20.8,   21.5,  999.0,  999.0,  999.0,  999.0,  999.0
2001/03/07 15:10,  999.0,    3.0,    3.3,    3.9,    3.1,    5.5,    3.5,    4.0,    4.3,    5.8,    5.3,    6.5,    5.7,    5.4,    5.8,    6.2,    5.9,    5.7,    5.0,    4.5,    3.6,    4.6,    4.4,    3.9,    3.3,    3.7,    3.7,    4.2,    5.1,    6.3,    6.4,    3.6,    3.6,    4.0,    4.0,    3.8,    3.6,    4.3,  999.0,  999.0,    9.0,    6.6,    8.7,   12.2,   13.0,   13.9,  999.0,   11.2,  999.0,   14.3,   17.3,   15.9,  999.0,  999.0,   24.3,   23.9,  999.0,  999.0
2001/03/07 15:20,  999.0,    2.2,    3.5,    3.4,    4.7,    5.7,    4.9,    6.1,    6.8,    7.7,    7.8,    7.7,    7.9,    7.3,    7.5,    7.9,    7.1,    6.6,    5.9,    4.6,    5.0,    4.1,    3.1,    3.1,    2.8,    2.1,    1.2,    1.1,    2.0,    2.9,    2.9,    2.7,    1.4,    1.5,    1.5,    1.0,    0.6,    0.8,    2.1,    4.7,    1.9,    1.7,  999.0,  999.0,    7.3,    6.6,    9.9,   16.2,   14.9,   17.2,   21.7,  999.0,  999.0,   21.2,  999.0,  999.0,  999.0,  999.0
2001/03/07 15:30,  999.0,    2.4,    1.1,    3.5,    3.3,    3.3,    4.5,    6.1,    5.3,    6.0,    5.2,    6.1,    7.2,    6.5,    6.9,    7.5,    7.4,    7.4,    7.1,    6.0,    6.1,    6.1,    5.9,    6.5,    5.5,    4.8,    3.7,    2.7,    2.1,    1.9,    2.9,    2.7,    2.5,    2.2,    2.1,    2.8,    3.0,    4.1,    4.1,  999.0,  999.0,  999.0,   13.9,  999.0,  999.0,  999.0,  999.0,  999.0,   17.1,   17.8,  999.0,  999.0,  999.0,  999.0,   20.5,  999.0,   20.0,  999.0
2001/03/07 15:40,  999.0,    1.9,    3.6,    4.0,    4.1,    5.0,    3.9,    6.0,    6.7,    6.7,    7.3,    7.7,    8.0,    8.0,    7.4,    6.6,    6.8,    6.0,    5.1,    5.5,    5.7,    5.5,    5.2,    4.8,    4.4,    4.4,    4.1,    4.0,    2.9,    2.7,    2.6,    2.3,    2.3,    2.4,    3.3,    4.2,    4.8,    6.0,  999.0,  999.0,  999.0,  999.0,  999.0,  999.0,   13.1,   17.4,  999.0,  999.0,  999.0,   19.6,   21.4,   20.9,   22.4,  999.0,  999.0,  999.0,  999.0,  999.0
2001/03/07 15:50,  999.0,    2.3,    4.2,    5.1,    5.4,    4.2,    5.4,    6.2,    6.5,    6.8,    6.1,    6.9,    7.0,    6.8,    7.0,    7.1,    7.1,    5.8,  999.0,  999.0,  999.0,    6.9,    5.9,    5.0,    4.6,    4.8,    4.2,    3.3,    3.7,    3.7,    3.6,    3.5,    3.4,    2.2,    3.1,    3.2,  999.0,  999.0,  999.0,    8.5,  999.0,   13.7,   15.6,   17.1,  999.0,  999.0,  999.0,  999.0,  999.0,  999.0,   23.3,   24.0,   23.3,   25.0,  999.0,  999.0,  999.0,  999.0
2001/03/07 16:00,  999.0,    2.2,    3.8,    3.9,    4.0,    4.2,    4.9,    6.2,    6.7,    7.2,    7.2,    7.6,    8.2,    8.1,    7.2,    7.3,    8.1,    8.7,  999.0,  999.0,  999.0,    9.0,    6.9,    5.9,    6.7,  999.0,    4.7,    5.0,  999.0,    2.2,    2.5,    1.7,    1.5,    1.9,    2.0,    3.5,    3.2,  999.0,  999.0,  999.0,  999.0,   13.3,   15.5,   15.1,   16.3,   18.0,   20.0,   21.0,  999.0,  999.0,  999.0,   22.7,   23.0,   22.9,  999.0,  999.0,  999.0,  999.0
2001/03/07 16:10,  999.0,    1.2,    3.4,    4.2,    3.4,    3.3,    3.5,    4.5,    4.9,    7.4,    7.6,    7.5,    8.1,    8.4,    8.5,    8.4,    8.7,    8.6,    8.5,    8.5,    7.6,    7.7,    7.4,    8.0,    7.4,    7.1,    8.0,  999.0,  999.0,    2.8,    2.4,    2.5,    1.4,    1.9,    2.0,    1.9,    2.0,    4.3,    7.4,  999.0,  999.0,  999.0,  999.0,  999.0,   17.3,  999.0,  999.0,   21.8,   23.7,   25.5,   23.3,   23.9,   25.0,   25.2,   24.8,   23.6,  999.0,  999.0
2001/03/07 16:20,  999.0,    1.5,    2.7,    3.8,    3.4,    3.7,    4.1,    6.1,    7.1,    7.7,    8.4,    9.4,   11.0,   10.4,   10.2,   10.5,    9.7,    7.6,    8.3,    7.8,    7.9,    8.5,    7.6,    7.4,    7.0,    6.0,    5.2,    5.2,  999.0,  999.0,    2.7,    2.9,    2.0,    2.5,    1.7,    1.1,    3.1,   -1.1,  999.0,  999.0,  999.0,  999.0,  999.0,  999.0,  999.0,  999.0,  999.0,  999.0,  999.0,  999.0,   25.5,   24.6,   24.2,   24.5,   24.9,  999.0,   24.5,  999.0
2001/03/07 16:30,  999.0,    1.2,    3.0,    3.4,    3.7,    4.9,    4.5,    5.2,    6.3,    7.9,    8.1,    8.0,    8.5,    7.7,    7.5,    8.0,    7.4,    7.9,    7.9,    7.2,    7.5,    8.1,    6.3,    7.3,    7.0,    6.8,    6.6,    6.6,    4.0,  999.0,  999.0,  999.0,    7.7,    7.1,    4.9,    8.5,    7.1,   -2.0,    5.5,   -2.3,   -2.3,    3.3,  999.0,   -2.7,   -0.1,  999.0,  999.0,   12.2,  999.0,  999.0,   22.3,   22.8,   22.8,   22.9,  999.0,   23.0,   23.9,   23.0
2001/03/07 16:40,  999.0,    2.0,    3.5,    2.2,    3.9,    4.9,    5.7,    6.7,    7.3,    8.1,    8.4,    8.5,    9.3,    9.5,    8.4,    8.0,    8.2,    7.6,    8.4,    8.4,    9.3,  999.0,    7.2,    7.6,    7.4,    6.1,    6.1,    5.1,    5.2,  999.0,    4.9,  999.0,   -2.1,   -3.3,   -2.2,   -0.7,    2.8,    1.1,    2.2,    4.3,    4.5,    5.4,    5.0,  999.0,   11.7,  999.0,  999.0,   17.9,  999.0,  999.0,  999.0,  999.0,  999.0,   24.8,  999.0,  999.0,  999.0,   21.9
2001/03/07 16:50,  999.0,    1.4,    2.2,    2.7,    4.0,    6.5,    7.4,    8.7,    9.4,    9.1,    9.3,    9.1,    8.4,    8.1,    7.5,    7.2,    7.9,    7.4,    7.1,    7.6,    8.8,    7.0,    6.4,    6.8,    8.0,    7.1,    7.3,    8.0,  999.0,  999.0,   -3.1,   -3.7,   -4.8,   -4.3,   -4.4,   -3.6,   -2.5,   -1.2,    0.7,    1.7,    3.1,  999.0,    4.5,    5.2,  999.0,   12.1,  999.0,   12.1,  999.0,  999.0,  999.0,  999.0,   20.0,  999.0,   13.3,  999.0,   16.0,  999.0
2001/03/07 17:00,  999.0,    2.5,    3.6,    4.9,    6.1,    7.6,    8.0,    9.0,    9.5,    9.5,    9.4,    9.6,    8.7,    8.4,    7.5,    7.0,    7.3,    7.6,    8.2,    8.8,    6.4,    8.1,    7.4,    6.2,    5.7,    5.4,    5.1,    4.0,  999.0,   -2.2,   -4.3,   -4.3,   -0.5,   -0.7,  999.0,  999.0,  999.0,  999.0,  999.0,  999.0,  999.0,  999.0,  999.0,  999.0,  999.0,  999.0,  999.0,  999.0,  999.0,  999.0,  999.0,  999.0,  999.0,   14.3,  999.0,  999.0,  999.0,  999.0
2001/03/07 17:10,  999.0,    2.4,    4.5,    5.4,    6.8,    6.7,    8.8,    9.3,    9.4,    9.7,    9.9,    9.9,    9.9,   10.4,    8.9,    8.5,    8.8,    8.1,    8.8,    7.8,    6.6,    7.4,    7.3,    5.9,    4.6,    4.1,    3.7,    3.9,    3.7,    3.3,    2.2,    2.2,    2.2,    1.9,    2.3,    1.7,    3.4,    3.0,  999.0,    8.4,   11.1,  999.0,    0.7,    8.6,    8.5,    9.6,  999.0,   12.0,   15.6,   18.1,  999.0,   20.8,  999.0,   22.1,   23.4,   20.8,   22.9,   22.0
2001/03/07 17:20,  999.0,    4.3,    5.1,    6.2,    7.0,    8.0,    8.9,    9.2,    9.7,   10.0,    8.6,    8.6,    9.1,    9.6,    8.2,    8.2,    7.6,    7.4,    7.3,    7.2,    7.5,    6.8,    7.8,    6.8,    5.6,    3.6,    3.5,    3.4,    1.5,   -4.1,   -3.8,   -1.3,   -0.9,    1.4,    1.5,   -0.3,   -0.8,   -0.8,   -3.2,   -3.0,   -2.9,   -4.1,    0.3,   -1.6,    3.7,    6.1,    6.5,   12.1,    9.8,   13.4,   18.5,   18.3,   14.7,  999.0,   19.5,  999.0,  999.0,  999.0
2001/03/07 17:30,  999.0,    3.6,    5.3,    6.5,    5.7,    6.7,    6.7,    8.0,    8.4,    9.2,    9.5,    9.7,    9.7,    8.3,    9.5,    9.9,    8.8,    6.8,    7.4,    8.8,    9.6,  999.0,   11.0,   10.0,    8.9,    8.4,    7.8,    5.1,    4.3,    5.8,    5.0,    3.3,    0.7,   -3.2,   -2.8,   -2.3,   -2.0,   -2.1,   -2.1,   -2.0,   -2.3,   -2.2,   -2.3,   -1.3,    0.9,    0.8,    4.3,    3.5,  999.0,    8.4,   10.6,   11.0,   13.7,  999.0,  999.0,  999.0,  999.0,  999.0
2001/03/07 17:40,  999.0,    3.2,    4.6,    5.6,    7.6,    7.9,    8.5,    9.2,    9.6,    9.7,    9.1,    8.7,    9.1,    9.6,  999.0,    9.4,    8.9,    9.1,    9.5,   10.6,   12.2,    6.1,    0.3,    9.7,    8.7,    8.4,    3.1,    3.1,   -3.3,    6.1,    2.5,    2.1,    0.1,   -6.1,   -4.7,   -3.0,   -3.0,   -2.3,   -1.4,   -1.7,   -1.6,    1.8,    1.4,   -1.7,  999.0,  999.0,  999.0,  999.0,  999.0,  999.0,  999.0,   16.6,  999.0,  999.0,  999.0,  999.0,  999.0,  999.0
2001/03/07 17:50,  999.0,    2.2,    4.3,    5.5,    6.1,    7.0,    7.8,    8.5,    7.5,    7.3,    6.4,    7.3,    7.8,    8.3,    9.6,    8.1,    9.6,    4.3,    8.0,    5.0,    2.8,    3.3,    0.1,    1.8,    1.5,    1.6,    2.9,    1.8,   -3.6,   -4.2,   -1.2,   -1.8,   -5.6,   -5.6,   -7.4,   -5.4,   -1.9,   -4.2,   -3.8,  999.0,    5.2,    6.4,    6.5,    8.1,  999.0,  999.0,  999.0,  999.0,  999.0,    1.9,  999.0,  999.0,  999.0,  999.0,  999.0,  999.0,  999.0,  999.0
2001/03/07 18:00,  999.0,    3.8,    4.8,    6.3,    7.2,    5.9,    3.9,    7.1,    6.8,    6.3,    6.3,    6.6,    6.7,    7.8,    8.8,    8.7,   10.1,    5.6,    6.4,   -0.3,    0.8,    0.8,    1.0,   -0.3,   -2.3,   -4.3,   -2.7,   -2.9,   -3.9,   -4.6,   -5.5,   -5.9,    2.6,    3.4,    4.1,    5.6,    4.6,  999.0,  999.0,  999.0,  999.0,   12.2,   13.3,   11.9,   15.0,  999.0,  999.0,  999.0,  999.0,   16.7,   15.7,   17.7,  999.0,  999.0,  999.0,  999.0,  999.0,  999.0
2001/03/07 18:10,  999.0,    5.5,    8.0,    7.6,    6.6,    3.6,    5.7,    5.5,    5.1,    4.1,    3.9,    5.7,    6.7,    8.3,  999.0,  999.0,  999.0,  999.0,    1.1,    0.7,    0.2,   -0.4,   -0.4,   -0.8,   -2.4,   -3.6,   -4.6,   -5.5,   -5.1,   -8.6,   -6.6,  999.0,  999.0,  999.0,   -6.4,  999.0,  999.0,  999.0,  999.0,  999.0,    3.2,  999.0,    4.9,    9.3,  999.0,  999.0,  999.0,  999.0,   16.0,   15.5,   14.4,   18.6,  999.0,  999.0,  999.0,  999.0,  999.0,  999.0
2001/03/07 18:20,  999.0,    3.3,    7.9,    7.5,    5.6,    5.7,    6.3,    3.2,    2.1,    2.7,    3.4,    4.1,    5.6,    5.8,  999.0,  999.0,  999.0,  999.0,  999.0,  999.0,   -0.0,   -0.5,   -3.1,   -5.4,   -5.2,   -5.0,   -5.9,   -5.9,   -6.3,   -6.7,  999.0,  999.0,  999.0,  999.0,  999.0,  999.0,    0.0,  999.0,  999.0,  999.0,  999.0,  999.0,  999.0,  999.0,   11.0,  999.0,  999.0,   21.3,   23.2,   26.2,   22.7,   23.3,  999.0,   25.1,  999.0,  999.0,  999.0,  999.0
2001/03/07 18:30,  999.0,    3.9,    6.4,    7.2,    4.5,    4.0,    6.6,    5.6,    2.1,    1.5,    3.6,    4.3,    5.8,    8.4,    7.4,    7.3,    6.4,    5.5,  999.0,  999.0,   -1.9,   -3.5,   -3.2,   -1.9,   -5.0,   -6.5,   -8.0,   -7.8,  999.0,  999.0,    4.1,    5.1,   -5.9,  999.0,  999.0,  999.0,  999.0,  999.0,  999.0,  999.0,  999.0,  999.0,  999.0,  999.0,  999.0,  999.0,  999.0,  999.0,  999.0,   21.3,   24.1,   24.8,  999.0,  999.0,  999.0,  999.0,  999.0,  999.0
2001/03/07 18:40,  999.0,    4.1,    6.3,    7.0,    6.2,    3.7,    5.4,    4.0,    4.8,    5.0,    5.4,    5.1,    5.7,    6.2,    7.0,    6.0,    5.2,  999.0,  999.0,  999.0,  999.0,  999.0,  999.0,  999.0,   -4.7,  999.0,   -4.4,  999.0,   -3.5,  999.0,  999.0,  999.0,    0.5,  999.0,  999.0,  999.0,  999.0,  999.0,  999.0,  999.0,  999.0,  999.0,  999.0,   22.7,  999.0,  999.0,  999.0,  999.0,  999.0,  999.0,  999.0,  999.0,  999.0,  999.0,  999.0,  999.0,  999.0,  999.0
2001/03/07 18:50,  999.0,    2.0,    3.7,    5.7,    6.3,    4.0,    3.7,    3.9,    4.1,    4.6,    5.5,    5.8,    6.7,    5.9,    7.6,    7.2,    6.9,  999.0,  999.0,  999.0,  999.0,  999.0,  999.0,  999.0,   -5.2,   -3.0,   -5.1,   -4.2,  999.0,   -0.8,  999.0,  999.0,  999.0,  999.0,  999.0,    7.4,  999.0,  999.0,   11.5,  999.0,  999.0,  999.0,  999.0,  999.0,  999.0,  999.0,  999.0,  999.0,  999.0,  999.0,  999.0,  999.0,  999.0,  999.0,  999.0,  999.0,   28.6,  999.0
2001/03/07 19:00,  999.0,    2.5,    4.6,    4.9,    6.1,    6.8,    4.8,    3.5,    4.0,    4.1,    5.2,    5.4,    6.9,    8.0,    7.7,    8.5,    6.6,    8.6,  999.0,    5.7,    7.9,  999.0,  999.0,  999.0,    0.2,  999.0,  999.0,   -3.1,    0.0,  999.0,  999.0,  999.0,  999.0,  999.0,    7.2,  999.0,  999.0,  999.0,  999.0,  999.0,  999.0,  999.0,  999.0,  999.0,  999.0,  999.0,  999.0,  999.0,  999.0,  999.0,  999.0,  999.0,  999.0,  999.0,  999.0,  999.0,  999.0,  999.0
2001/03/07 19:10,  999.0,    4.7,    5.2,    6.2,    6.6,    3.7,    5.3,    2.3,    3.4,    2.1,    3.4,    5.2,    4.9,    7.6,    8.4,    8.5,    7.7,    7.3,    6.9,    7.4,    8.5,    7.7,  999.0,    7.4,    7.7,    7.2,    5.5,    6.5,    4.5,  999.0,  999.0,  999.0,    2.2,    4.8,  999.0,  999.0,    6.8,   10.9,  999.0,  999.0,  999.0,    7.4,   19.0,  999.0,  999.0,  999.0,  999.0,  999.0,  999.0,  999.0,  999.0,  999.0,  999.0,  999.0,  999.0,   21.9,  999.0,  999.0
2001/03/07 19:20,  999.0,  999.0,    5.9,    6.0,    5.7,    5.6,  999.0,  999.0,  999.0,  999.0,  999.0,    4.7,    6.2,    8.4,    8.7,    8.2,    7.5,    8.1,    7.8,    8.1,    8.8,    7.5,    7.9,    7.0,    6.6,    6.4,    6.4,  999.0,  999.0,    6.0,  999.0,  999.0,  999.0,    7.7,    9.4,  999.0,   11.6,   12.6,  999.0,   12.2,  999.0,  999.0,  999.0,   19.5,  999.0,  999.0,  999.0,  999.0,   23.5,  999.0,   22.0,   22.4,   24.4,  999.0,  999.0,  999.0,  999.0,  999.0
2001/03/07 19:30,  999.0,    6.1,    6.1,    5.3,    5.5,  999.0,  999.0,    4.6,  999.0,  999.0,  999.0,    6.6,    6.9,    7.3,    8.5,    8.1,    7.9,    7.5,    5.6,  999.0,  999.0,   10.3,    8.1,    6.3,    6.6,    7.8,    8.4,    8.9,  999.0,  999.0,    5.9,  999.0,    5.5,    8.6,    8.8,    8.8,    5.4,   10.9,  999.0,   14.0,   13.7,  999.0,  999.0,  999.0,  999.0,  999.0,  999.0,  999.0,  999.0,  999.0,  999.0,  999.0,   22.6,  999.0,  999.0,  999.0,  999.0,  999.0
2001/03/07 19:40,  999.0,  999.0,   -0.7,    2.5,  999.0,  999.0,  999.0,  999.0,  999.0,  999.0,    0.7,    5.9,    7.4,    8.3,    8.6,    8.3,    8.4,    6.8,    7.1,  999.0,    6.2,  999.0,    6.7,    9.7,    6.0,    6.5,    7.4,    7.1,  999.0,    6.7,  999.0,  999.0,    8.2,    9.5,   10.7,  999.0,  999.0,   14.5,  999.0,  999.0,  999.0,  999.0,  999.0,  999.0,  999.0,  999.0,  999.0,  999.0,  999.0,   20.4,   19.9,   20.9,   21.4,  999.0,  999.0,  999.0,  999.0,  999.0
2001/03/07 19:50,  999.0,    0.2,   -1.1,    1.5,    0.5,   -0.0,  999.0,  999.0,    3.0,    5.3,    5.8,    6.0,    8.1,    8.3,    7.7,    8.7,    8.3,    7.9,    7.3,    8.9,   10.4,   10.6,  999.0,    6.5,    7.6,    7.4,    5.1,  999.0,  999.0,  999.0,  999.0,  999.0,    9.4,    8.6,  999.0,  999.0,  999.0,  999.0,  999.0,  999.0,  999.0,  999.0,  999.0,  999.0,  999.0,  999.0,  999.0,  999.0,   10.9,  999.0,  999.0,   15.1,  999.0,   18.0,   17.5,  999.0,  999.0,  999.0
2001/03/07 20:00,  999.0,    5.6,    4.9,    1.6,    1.1,   -0.6,    1.4,    1.7,    1.7,    2.3,    5.0,    6.3,    6.3,    8.0,    8.2,    7.2,    8.2,    6.6,    6.9,    8.5,    2.1,    8.3,    8.6,    5.9,    7.5,    7.2,  999.0,    6.0,    7.1,  999.0,  999.0,  999.0,  999.0,    4.8,   11.1,   12.1,  999.0,  999.0,  999.0,  999.0,  999.0,  999.0,  999.0,  999.0,  999.0,  999.0,  999.0,  999.0,  999.0,  999.0,  999.0,  999.0,  999.0,  999.0,  999.0,  999.0,  999.0,  999.0
2001/03/07 20:10,  999.0,  999.0,    5.0,    3.2,    1.8,    1.4,   -3.0,    0.9,    2.6,    2.8,    3.8,    6.1,    6.8,    7.3,    8.2,    8.2,    7.9,    7.9,    8.3,    7.9,   10.0,   10.4,   10.5,    9.7,    8.8,    9.4,    8.1,    6.4,    4.0,    4.5,  999.0,    4.0,    3.2,    3.4,    4.4,    4.6,    3.9,  999.0,  999.0,  999.0,  999.0,  999.0,  999.0,  999.0,  999.0,  999.0,  999.0,  999.0,  999.0,  999.0,  999.0,  999.0,  999.0,  999.0,  999.0,  999.0,  999.0,  999.0
2001/03/07 20:20,  999.0,    2.9,    5.6,    2.5,    1.7,    1.9,    0.5,    1.8,    1.4,    2.3,    4.2,    4.9,    7.1,    8.4,    8.5,    8.7,    9.0,    9.1,    8.2,    7.8,  999.0,    9.8,    9.2,    8.5,    8.7,    8.7,    7.0,    6.7,    9.4,    6.5,    6.4,  999.0,    4.4,   12.1,   12.8,    9.3,  999.0,  999.0,  999.0,  999.0,  999.0,  999.0,  999.0,  999.0,  999.0,  999.0,  999.0,  999.0,  999.0,  999.0,  999.0,  999.0,  999.0,  999.0,  999.0,  999.0,  999.0,  999.0
2001/03/07 20:30,  999.0,    3.7,    4.8,    3.5,    1.4,    1.6,    1.8,    1.7,    2.4,    3.6,    5.2,    6.4,    6.5,    6.9,    7.6,    8.7,    8.2,    8.0,   12.2,   10.7,    9.7,    8.3,    9.4,   10.0,   12.5,  999.0,  999.0,  999.0,    9.2,   10.0,   10.6,   12.6,   12.4,   14.7,   15.0,   15.5,  999.0,   16.9,   18.4,  999.0,  999.0,  999.0,  999.0,  999.0,  999.0,  999.0,  999.0,  999.0,  999.0,  999.0,  999.0,  999.0,  999.0,  999.0,  999.0,  999.0,  999.0,  999.0
2001/03/07 20:40,  999.0,    2.2,    3.0,    2.1,    2.5,    1.4,    1.3,    2.9,    4.2,    5.9,    6.3,    7.0,    7.5,    8.1,    7.9,    6.9,    7.6,  999.0,    8.1,  999.0,    8.6,    7.7,  999.0,   10.1,  999.0,  999.0,  999.0,  999.0,  999.0,   10.0,    9.2,    7.8,    9.5,   10.9,   11.9,   12.9,   13.5,   13.1,   15.0,  999.0,  999.0,  999.0,  999.0,  999.0,  999.0,  999.0,  999.0,  999.0,  999.0,  999.0,  999.0,  999.0,  999.0,  999.0,  999.0,  999.0,  999.0,  999.0
2001/03/07 20:50,  999.0,    2.7,    2.7,    1.3,    0.1,    0.1,    0.6,    1.4,    2.6,    4.9,    6.1,    6.3,    7.8,    8.9,    9.4,    9.3,   11.6,   11.6,  999.0,  999.0,    7.0,    6.0,    7.8,    7.5,  999.0,    8.8,    7.1,    8.7,    9.0,   10.1,    6.0,    6.7,    6.7,    6.9,    7.7,   10.1,    9.3,    9.7,   10.4,   11.7,   10.8,  999.0,  999.0,  999.0,  999.0,  999.0,  999.0,  999.0,  999.0,   14.2,  999.0,  999.0,   19.2,  999.0,  999.0,  999.0,  999.0,  999.0
2001/03/07 21:00,  999.0,    3.1,    1.3,    1.8,    2.7,    1.0,    0.8,    1.2,    2.6,    4.1,    5.8,    7.0,    8.0,    8.8,   10.1,  999.0,    5.9,    8.6,   11.0,    8.3,    9.0,    8.2,    8.5,  999.0,    7.2,  999.0,  999.0,    6.3,    7.4,    5.6,    4.3,    4.3,    4.1,    4.0,    4.2,    4.9,    5.2,    4.4,    3.6,    3.8,    1.8,    5.9,    9.8,  999.0,   -8.4,  999.0,  999.0,  999.0,  999.0,  999.0,  999.0,  -20.7,    1.2,  999.0,  999.0,  999.0,  999.0,  999.0
2001/03/07 21:10,  999.0,    2.3,    2.8,    3.1,    1.2,   -1.5,    0.3,    1.0,    2.8,    4.1,    4.8,    7.6,    9.1,    9.1,  999.0,  999.0,    6.1,    6.8,    7.5,  999.0,    8.6,    8.0,  999.0,  999.0,  999.0,  999.0,  999.0,  999.0,  999.0,  999.0,  999.0,    5.3,    4.3,    3.8,  999.0,    6.1,    2.1,    3.8,    3.6,    4.2,    2.6,    2.8,  999.0,  999.0,    8.0,  999.0,   11.4,  999.0,   11.0,  999.0,  999.0,  999.0,  999.0,   13.4,  999.0,  999.0,  999.0,  999.0
2001/03/07 21:20,  999.0,    3.3,    3.4,    0.1,    2.1,    1.9,    1.6,    3.4,    4.1,    4.1,    5.4,    6.9,    7.6,    9.2,    7.7,    6.6,    6.3,  999.0,    9.0,    6.8,    9.5,   10.6,    8.5,  999.0,    8.5,    8.9,  999.0,  999.0,    5.9,    7.0,    6.9,    4.6,    4.7,    4.5,    5.1,    5.7,    5.0,    4.3,    5.0,    5.1,    8.0,  999.0,  999.0,  999.0,  999.0,  999.0,  999.0,  999.0,  999.0,   13.2,   15.7,  999.0,  999.0,  999.0,  999.0,  999.0,  999.0,  999.0
2001/03/07 21:30,  999.0,    4.0,    2.0,   -0.3,   -1.3,    0.5,    3.7,    2.2,    1.9,    3.3,    6.0,    7.2,    8.2,    8.2,    7.5,  999.0,  999.0,    9.5,  999.0,  999.0,    9.0,    8.8,  999.0,  999.0,  999.0,    8.7,    9.2,    9.5,  999.0,  999.0,    7.5,    5.6,    3.8,    4.2,    5.0,    5.1,  999.0,    3.4,    5.0,    6.0,  999.0,  999.0,  999.0,    9.4,  999.0,  999.0,  999.0,   14.9,  999.0,   14.1,   16.1,  999.0,  999.0,   19.8,  999.0,  999.0,  999.0,  999.0
2001/03/07 21:40,  999.0,    5.3,    4.9,    2.4,    1.1,    2.0,    2.3,    1.2,    1.7,    2.9,    4.2,    5.2,    7.5,    8.3,    6.9,    9.1,  999.0,  999.0,  999.0,  999.0,    7.2,    9.2,   10.2,  999.0,    9.4,    9.7,  999.0,  999.0,    5.7,  999.0,  999.0,    3.7,    3.5,  999.0,    4.0,    4.1,  999.0,    4.7,  999.0,   10.0,  999.0,  999.0,  999.0,  999.0,  999.0,  999.0,  999.0,  999.0,  999.0,  999.0,  999.0,   19.6,  999.0,  999.0,  999.0,  999.0,  999.0,  999.0
2001/03/07 21:50,  999.0,    4.5,    5.5,    5.2,    2.3,    1.6,    1.7,    3.4,    4.3,    4.0,    5.0,    6.6,    7.9,    7.4,    8.6,    3.0,  999.0,  999.0,  999.0,   12.4,   10.5,    9.6,    9.4,   10.2,    7.4,    9.4,  999.0,  999.0,  999.0,    4.5,    5.4,  999.0,    5.0,  999.0,    5.3,  999.0,  999.0,  999.0,    8.4,   12.5,  999.0,    8.4,  999.0,  999.0,  999.0,  999.0,  999.0,  999.0,   21.6,   15.8,  999.0,  999.0,  999.0,  999.0,  999.0,  999.0,  999.0,  999.0
2001/03/07 22:00,  999.0,    2.9,    4.9,    4.9,    3.7,    2.0,    1.0,    1.7,    3.8,    4.5,    5.9,    6.8,    7.4,    8.2,    8.7,    8.3,  999.0,  999.0,  999.0,  999.0,    8.4,    9.1,    9.0,    8.2,    8.1,    8.1,    7.0,  999.0,  999.0,    3.2,  999.0,  999.0,    4.2,    4.4,    5.0,    7.4,  999.0,  999.0,    2.7,    6.8,   11.2,  999.0,  999.0,  999.0,  999.0,  999.0,  999.0,  999.0,   21.6,  999.0,  999.0,  999.0,   22.5,   24.3,  999.0,   24.9,  999.0,  999.0
2001/03/07 22:10,  999.0,    4.4,    4.6,    4.2,    4.4,    6.7,    2.0,    2.9,    3.7,    5.3,    5.8,    6.6,    7.6,    7.9,    8.0,    8.0,  999.0,    7.7,    8.8,    9.5,    7.9,    7.7,    8.2,    6.9,    6.5,    6.4,    7.0,    7.7,  999.0,  999.0,    5.7,    5.6,  999.0,    6.4,    5.0,    4.8,  999.0,  999.0,    7.2,    8.9,    7.4,  999.0,  999.0,  999.0,  999.0,  999.0,  999.0,  999.0,  999.0,  999.0,  999.0,  999.0,  999.0,  999.0,  999.0,  999.0,  999.0,   24.6
2001/03/07 22:20,  999.0,    4.6,    3.3,    3.2,    5.3,    5.2,    2.2,    4.7,    5.2,    6.6,    7.2,    7.5,    8.2,    8.1,    8.1,    7.9,    8.6,    7.2,    7.8,    7.9,    8.0,    7.3,    7.1,    7.7,    7.5,    8.6,    8.3,    6.8,  999.0,    5.7,    4.3,    4.4,  999.0,    4.6,    6.1,  999.0,  999.0,  999.0,  999.0,  999.0,  999.0,  999.0,  999.0,  999.0,   11.5,   11.7,  999.0,  999.0,  999.0,  999.0,  999.0,  999.0,  999.0,  999.0,  999.0,  999.0,  999.0,  999.0
2001/03/07 22:30,  999.0,    4.3,    4.6,    4.6,    3.9,    3.7,    4.4,    5.4,    6.6,    7.8,    7.4,    7.8,    7.8,    8.3,    8.0,    9.2,  999.0,    9.8,    8.8,    8.4,    7.8,    7.0,    6.9,    6.6,    7.5,    7.0,  999.0,  999.0,  999.0,    4.9,    4.8,  999.0,  999.0,    9.8,  999.0,  999.0,  999.0,  999.0,  999.0,  999.0,  999.0,  999.0,  999.0,  999.0,  999.0,  999.0,  999.0,  999.0,  999.0,  999.0,  999.0,   27.9,   26.9,  999.0,  999.0,   28.1,  999.0,  999.0
2001/03/07 22:40,  999.0,    5.2,    4.8,    3.7,    3.9,    5.6,    6.1,    6.9,    8.2,    8.8,    8.8,    8.9,    8.7,    8.9,    9.1,    9.1,    9.7,    9.6,    9.7,   10.2,    9.7,    8.9,    7.7,    7.0,    7.7,    8.2,    7.8,  999.0,  999.0,  999.0,  999.0,  999.0,    7.9,    9.1,   11.1,  999.0,  999.0,  999.0,  999.0,   18.7,  999.0,  999.0,  999.0,  999.0,  999.0,  999.0,   21.9,  999.0,  999.0,  999.0,  999.0,  999.0,  999.0,  999.0,  999.0,  999.0,  999.0,  999.0
2001/03/07 22:50,  999.0,    5.0,    4.7,    4.1,    3.6,    5.4,    5.9,    7.0,    6.5,  999.0,   10.9,    8.9,    8.6,    8.3,    7.8,    8.2,    9.0,    9.5,    9.3,    8.8,    9.1,    9.3,    9.4,    9.5,    8.5,    8.6,    5.9,    7.6,  999.0,    7.5,  999.0,  999.0,    6.6,    7.7,   12.2,  999.0,    9.4,  999.0,  999.0,  999.0,  999.0,  999.0,  999.0,  999.0,  999.0,  999.0,  999.0,  999.0,  999.0,  999.0,   28.0,  999.0,  999.0,  999.0,  999.0,  999.0,  999.0,  999.0
2001/03/07 23:00,  999.0,    5.4,    6.0,    6.1,    4.1,    4.5,    5.1,    6.7,    4.4,    6.4,    8.4,    7.9,    7.2,    7.5,    7.3,    8.0,    8.0,    8.6,    9.0,    8.2,    8.8,    9.5,    9.7,    8.4,    8.9,    6.1,    7.6,    8.9,  999.0,  999.0,  999.0,  999.0,    8.2,    8.7,  999.0,  999.0,  999.0,  999.0,  999.0,  999.0,  999.0,  999.0,  999.0,  999.0,  999.0,  999.0,  999.0,  999.0,  999.0,  999.0,  999.0,  999.0,  999.0,  999.0,  999.0,   27.4,  999.0,  999.0
2001/03/07 23:10,  999.0,    4.1,    3.8,    2.2,    3.3,    4.8,    6.0,    6.3,    8.2,    8.1,    8.7,    8.3,    8.3,    8.6,    8.6,    8.0,    8.6,    9.0,    8.9,    9.3,    7.8,    7.6,    7.6,    8.4,    5.8,    7.7,    8.0,  999.0,  999.0,  999.0,  999.0,   10.1,  999.0,  999.0,  999.0,  999.0,  999.0,  999.0,  999.0,  999.0,  999.0,  999.0,  999.0,  999.0,  999.0,  999.0,  999.0,   23.0,   25.1,  999.0,  999.0,  999.0,  999.0,  999.0,  999.0,  999.0,  999.0,   27.7
2001/03/07 23:20,  999.0,    4.4,    4.3,    3.6,    4.4,    4.1,    5.4,    6.1,    7.2,    7.4,    8.3,    8.8,    7.6,    6.6,    5.9,    6.2,    6.4,    7.3,    7.5,    8.5,    9.0,    9.3,    8.9,    9.3,  999.0,    6.6,    9.8,  999.0,  999.0,  999.0,  999.0,  999.0,  999.0,  999.0,  999.0,  999.0,  999.0,  999.0,  999.0,  999.0,  999.0,  999.0,  999.0,  999.0,  999.0,  999.0,  999.0,  999.0,  999.0,  999.0,  999.0,  999.0,   28.0,  999.0,  999.0,  999.0,  999.0,  999.0
2001/03/07 23:30,  999.0,    3.2,    4.6,    5.3,    6.2,    6.9,    7.3,    6.7,    6.8,    7.3,    7.1,    6.5,    7.7,    7.9,    7.7,    7.4,    7.3,    7.2,    7.6,    7.3,    7.3,    7.4,    7.4,    8.4,    9.4,  999.0,  999.0,    7.1,    6.8,    5.3,  999.0,   12.0,    9.6,  999.0,  999.0,  999.0,  999.0,  999.0,  999.0,  999.0,  999.0,  999.0,  999.0,  999.0,  999.0,  999.0,  999.0,  999.0,  999.0,  999.0,   27.5,  999.0,  999.0,  999.0,  999.0,  999.0,  999.0,  999.0
2001/03/07 23:40,  999.0,    5.0,    4.7,    5.0,    6.3,    6.5,    7.3,    7.3,    7.3,    8.0,    7.2,    6.9,    6.9,    6.9,    6.4,    6.6,    6.6,    7.2,    7.2,    7.6,    9.2,    9.4,    8.0,    8.6,    8.3,    7.6,    7.1,    6.3,    6.5,    7.8,  999.0,    8.0,   10.2,  999.0,  999.0,  999.0,  999.0,  999.0,  999.0,  999.0,  999.0,  999.0,  999.0,  999.0,  999.0,  999.0,  999.0,  999.0,   25.8,  999.0,   27.3,  999.0,  999.0,  999.0,  999.0,  999.0,  999.0,  999.0
2001/03/07 23:50,  999.0,    4.1,    5.2,    6.4,    6.6,    6.3,    7.8,    6.7,    6.7,    6.8,    8.0,    7.0,    6.5,    6.4,    6.5,    6.0,    6.3,    7.2,    7.5,    7.5,    8.0,    9.6,    8.9,    7.4,    7.9,    7.4,    7.4,    6.1,    5.4,    5.5,    7.5,  999.0,    9.3,  999.0,  999.0,  999.0,  999.0,  999.0,  999.0,  999.0,  999.0,  999.0,  999.0,  999.0,  999.0,  999.0,  999.0,  999.0,  999.0,  999.0,  999.0,  999.0,  999.0,  999.0,  999.0,  999.0,  999.0,  999.0
